Wetterdaten: Freitag, 22.10.2021
Datum Zeit Temp. Aussen Temp. o. S. Temp +5cm Feuchte Auss Luftdruck Regen Sonnenschein Regendauer Solar Windben Empfang
22.10.2021 00:00 6,2 C 5,6 C 5,6 C 93 % 1014,9 hPa 0,0 l/m 0 min 0 min 0 W/m 6,4 km/h (2 Bft) 97,87 %
22.10.2021 00:02 6,2 C 5,6 C 5,6 C 93 % 1014,9 hPa 0,0 l/m 0 min 0 min 0 W/m 3,2 km/h (1 Bft) 95,00 %
22.10.2021 00:04 6,3 C 5,6 C 5,6 C 93 % 1014,9 hPa 0,0 l/m 0 min 0 min 0 W/m 3,2 km/h (1 Bft) 97,92 %
22.10.2021 00:08 6,3 C 5,6 C 5,6 C 93 % 1015,0 hPa 0,0 l/m 0 min 0 min 0 W/m 6,4 km/h (2 Bft) 98,18 %
22.10.2021 00:10 6,2 C 5,6 C 5,6 C 93 % 1015,0 hPa 0,0 l/m 0 min 0 min 0 W/m 6,4 km/h (2 Bft) 100,00 %
22.10.2021 00:12 6,3 C 6,1 C 5,6 C 93 % 1015,0 hPa 0,0 l/m 0 min 0 min 0 W/m 6,4 km/h (2 Bft) 95,74 %
22.10.2021 00:14 6,3 C 6,1 C 5,6 C 93 % 1015,0 hPa 0,0 l/m 0 min 0 min 0 W/m 6,4 km/h (2 Bft) 97,87 %
22.10.2021 00:16 6,3 C 6,1 C 5,6 C 93 % 1015,0 hPa 0,0 l/m 0 min 0 min 0 W/m 3,2 km/h (1 Bft) 95,74 %
22.10.2021 00:18 6,3 C 6,1 C 5,6 C 93 % 1015,0 hPa 0,0 l/m 0 min 0 min 0 W/m 3,2 km/h (1 Bft) 97,87 %
22.10.2021 00:20 6,3 C 6,1 C 5,6 C 93 % 1015,0 hPa 0,0 l/m 0 min 0 min 0 W/m 6,4 km/h (2 Bft) 97,83 %
22.10.2021 00:22 6,3 C 6,1 C 5,6 C 93 % 1015,0 hPa 0,0 l/m 0 min 0 min 0 W/m 6,4 km/h (2 Bft) 97,87 %
22.10.2021 00:24 6,3 C 6,1 C 5,6 C 93 % 1015,1 hPa 0,0 l/m 0 min 0 min 0 W/m 6,4 km/h (2 Bft) 95,74 %
22.10.2021 00:26 6,3 C 6,1 C 5,6 C 93 % 1015,1 hPa 0,0 l/m 0 min 0 min 0 W/m 12,9 km/h (3 Bft) 97,87 %
22.10.2021 00:28 6,3 C 6,1 C 5,6 C 93 % 1015,1 hPa 0,0 l/m 0 min 0 min 0 W/m 12,9 km/h (3 Bft) 97,87 %
22.10.2021 00:30 6,3 C 6,1 C 5,6 C 93 % 1015,2 hPa 0,0 l/m 0 min 0 min 0 W/m 6,4 km/h (2 Bft) 97,87 %
22.10.2021 00:32 6,3 C 6,1 C 5,6 C 93 % 1015,2 hPa 0,0 l/m 0 min 0 min 0 W/m 6,4 km/h (2 Bft) 97,83 %
22.10.2021 00:34 6,3 C 6,1 C 5,6 C 93 % 1015,2 hPa 0,0 l/m 0 min 0 min 0 W/m 9,7 km/h (2 Bft) 97,87 %
22.10.2021 00:36 6,3 C 6,1 C 5,6 C 93 % 1015,2 hPa 0,0 l/m 0 min 0 min 0 W/m 9,7 km/h (2 Bft) 95,74 %
22.10.2021 00:38 6,4 C 6,1 C 5,6 C 93 % 1015,2 hPa 0,0 l/m 0 min 0 min 0 W/m 12,9 km/h (3 Bft) 97,87 %
22.10.2021 00:42 6,4 C 6,1 C 6,1 C 93 % 1015,2 hPa 0,0 l/m 0 min 0 min 0 W/m 6,4 km/h (2 Bft) 96,77 %
22.10.2021 00:46 6,4 C 6,1 C 6,1 C 92 % 1015,3 hPa 0,0 l/m 0 min 0 min 0 W/m 6,4 km/h (2 Bft) 97,92 %
22.10.2021 00:48 6,5 C 6,1 C 6,1 C 93 % 1015,4 hPa 0,0 l/m 0 min 0 min 0 W/m 12,9 km/h (3 Bft) 97,56 %
22.10.2021 00:50 6,5 C 6,1 C 6,1 C 93 % 1015,4 hPa 0,0 l/m 0 min 0 min 0 W/m 9,7 km/h (2 Bft) 97,87 %
22.10.2021 00:52 6,5 C 6,1 C 6,1 C 92 % 1015,4 hPa 0,0 l/m 0 min 0 min 0 W/m 9,7 km/h (2 Bft) 93,62 %
22.10.2021 00:54 6,5 C 6,1 C 6,1 C 92 % 1015,5 hPa 0,0 l/m 0 min 0 min 0 W/m 12,9 km/h (3 Bft) 95,74 %
22.10.2021 00:56 6,5 C 6,1 C 6,1 C 92 % 1015,5 hPa 0,0 l/m 0 min 0 min 0 W/m 6,4 km/h (2 Bft) 97,87 %
22.10.2021 00:58 6,6 C 6,1 C 6,1 C 92 % 1015,4 hPa 0,0 l/m 0 min 0 min 0 W/m 6,4 km/h (2 Bft) 96,08 %
22.10.2021 01:00 6,6 C 6,1 C 6,1 C 92 % 1015,4 hPa 0,0 l/m 0 min 0 min 0 W/m 9,7 km/h (2 Bft) 97,87 %
22.10.2021 01:02 6,6 C 6,1 C 6,1 C 92 % 1015,4 hPa 0,0 l/m 0 min 0 min 0 W/m 12,9 km/h (3 Bft) 97,87 %
22.10.2021 01:04 6,6 C 6,7 C 6,1 C 92 % 1015,5 hPa 0,0 l/m 0 min 0 min 0 W/m 16,1 km/h (3 Bft) 97,87 %
22.10.2021 01:06 6,7 C 6,7 C 6,1 C 92 % 1015,5 hPa 0,0 l/m 0 min 0 min 0 W/m 9,7 km/h (2 Bft) 97,87 %
22.10.2021 01:08 6,7 C 6,7 C 6,1 C 92 % 1015,5 hPa 0,0 l/m 0 min 0 min 0 W/m 6,4 km/h (2 Bft) 95,65 %
22.10.2021 01:10 6,7 C 6,7 C 6,1 C 92 % 1015,4 hPa 0,0 l/m 0 min 0 min 0 W/m 12,9 km/h (3 Bft) 97,87 %
22.10.2021 01:12 6,8 C 6,7 C 6,1 C 92 % 1015,4 hPa 0,0 l/m 0 min 0 min 0 W/m 6,4 km/h (2 Bft) 97,22 %
22.10.2021 01:14 6,8 C 6,7 C 6,1 C 92 % 1015,4 hPa 0,0 l/m 0 min 0 min 0 W/m 6,4 km/h (2 Bft) 97,87 %
22.10.2021 01:16 6,8 C 6,7 C 6,1 C 91 % 1015,4 hPa 0,0 l/m 0 min 0 min 0 W/m 6,4 km/h (2 Bft) 94,83 %
22.10.2021 01:18 6,8 C 6,7 C 6,1 C 91 % 1015,4 hPa 0,0 l/m 0 min 0 min 0 W/m 6,4 km/h (2 Bft) 97,87 %
22.10.2021 01:20 6,8 C 6,7 C 6,1 C 91 % 1015,4 hPa 0,0 l/m 0 min 0 min 0 W/m 12,9 km/h (3 Bft) 97,87 %
22.10.2021 01:22 6,9 C 6,7 C 6,1 C 91 % 1015,5 hPa 0,0 l/m 0 min 0 min 0 W/m 6,4 km/h (2 Bft) 97,87 %
22.10.2021 01:24 6,9 C 6,7 C 6,1 C 91 % 1015,5 hPa 0,0 l/m 0 min 0 min 0 W/m 9,7 km/h (2 Bft) 97,87 %
22.10.2021 01:26 6,9 C 6,7 C 6,1 C 91 % 1015,4 hPa 0,0 l/m 0 min 0 min 0 W/m 6,4 km/h (2 Bft) 97,83 %
22.10.2021 01:28 6,9 C 6,7 C 6,1 C 91 % 1015,5 hPa 0,0 l/m 0 min 0 min 0 W/m 19,3 km/h (3 Bft) 95,74 %
22.10.2021 01:30 6,9 C 6,7 C 6,1 C 91 % 1015,5 hPa 0,0 l/m 0 min 0 min 0 W/m 9,7 km/h (2 Bft) 93,62 %
22.10.2021 01:32 6,9 C 6,7 C 6,1 C 91 % 1015,6 hPa 0,0 l/m 0 min 0 min 0 W/m 9,7 km/h (2 Bft) 97,87 %
22.10.2021 01:34 6,9 C 6,7 C 6,1 C 90 % 1015,7 hPa 0,0 l/m 0 min 0 min 0 W/m 6,4 km/h (2 Bft) 95,74 %
22.10.2021 01:36 6,9 C 6,7 C 6,1 C 90 % 1015,6 hPa 0,0 l/m 0 min 0 min 0 W/m 12,9 km/h (3 Bft) 93,62 %
22.10.2021 01:38 6,9 C 6,7 C 6,1 C 90 % 1015,6 hPa 0,0 l/m 0 min 0 min 0 W/m 16,1 km/h (3 Bft) 95,65 %
22.10.2021 01:40 6,9 C 6,7 C 6,1 C 90 % 1015,6 hPa 0,0 l/m 0 min 0 min 0 W/m 9,7 km/h (2 Bft) 95,74 %
22.10.2021 01:42 6,9 C 6,7 C 6,1 C 90 % 1015,6 hPa 0,0 l/m 0 min 0 min 0 W/m 16,1 km/h (3 Bft) 97,87 %
22.10.2021 01:44 6,9 C 6,7 C 6,1 C 90 % 1015,6 hPa 0,0 l/m 0 min 0 min 0 W/m 12,9 km/h (3 Bft) 97,87 %
22.10.2021 01:46 7,0 C 6,7 C 6,1 C 90 % 1015,5 hPa 0,0 l/m 0 min 0 min 0 W/m 9,7 km/h (2 Bft) 97,87 %
22.10.2021 01:48 7,0 C 6,7 C 6,1 C 90 % 1015,5 hPa 0,0 l/m 0 min 0 min 0 W/m 6,4 km/h (2 Bft) 100,00 %
22.10.2021 01:50 7,0 C 6,7 C 6,1 C 90 % 1015,6 hPa 0,0 l/m 0 min 0 min 0 W/m 9,7 km/h (2 Bft) 97,83 %
22.10.2021 01:52 7,0 C 6,7 C 6,1 C 90 % 1015,5 hPa 0,0 l/m 0 min 0 min 0 W/m 6,4 km/h (2 Bft) 97,87 %
22.10.2021 01:54 7,0 C 6,7 C 6,1 C 90 % 1015,5 hPa 0,0 l/m 0 min 0 min 0 W/m 3,2 km/h (1 Bft) 97,87 %
22.10.2021 01:56 6,9 C 6,7 C 6,1 C 90 % 1015,6 hPa 0,0 l/m 0 min 0 min 0 W/m 6,4 km/h (2 Bft) 95,74 %
22.10.2021 01:58 6,9 C 6,1 C 6,1 C 90 % 1015,6 hPa 0,0 l/m 0 min 0 min 0 W/m 3,2 km/h (1 Bft) 97,87 %
22.10.2021 02:00 6,9 C 6,1 C 6,1 C 90 % 1015,6 hPa 0,0 l/m 0 min 0 min 0 W/m 6,4 km/h (2 Bft) 97,87 %
22.10.2021 02:02 6,9 C 6,1 C 6,1 C 89 % 1015,6 hPa 0,0 l/m 0 min 0 min 0 W/m 6,4 km/h (2 Bft) 97,87 %
22.10.2021 02:04 6,9 C 6,1 C 6,1 C 89 % 1015,6 hPa 0,0 l/m 0 min 0 min 0 W/m 3,2 km/h (1 Bft) 97,87 %
22.10.2021 02:06 6,8 C 6,1 C 6,1 C 89 % 1015,6 hPa 0,0 l/m 0 min 0 min 0 W/m 6,4 km/h (2 Bft) 100,00 %
22.10.2021 02:08 6,8 C 6,1 C 6,1 C 89 % 1015,5 hPa 0,0 l/m 0 min 0 min 0 W/m 3,2 km/h (1 Bft) 100,00 %
22.10.2021 02:10 6,8 C 6,1 C 6,1 C 89 % 1015,5 hPa 0,0 l/m 0 min 0 min 0 W/m 9,7 km/h (2 Bft) 100,00 %
22.10.2021 02:12 6,8 C 6,1 C 6,1 C 90 % 1015,5 hPa 0,0 l/m 0 min 0 min 0 W/m 3,2 km/h (1 Bft) 100,00 %
22.10.2021 02:14 6,7 C 6,1 C 6,1 C 90 % 1015,5 hPa 0,0 l/m 0 min 0 min 0 W/m 6,4 km/h (2 Bft) 100,00 %
22.10.2021 02:16 6,7 C 6,1 C 5,6 C 90 % 1015,6 hPa 0,0 l/m 0 min 0 min 0 W/m 3,2 km/h (1 Bft) 100,00 %
22.10.2021 02:18 6,7 C 6,1 C 5,6 C 90 % 1015,6 hPa 0,0 l/m 0 min 0 min 0 W/m 9,7 km/h (2 Bft) 100,00 %
22.10.2021 02:20 6,6 C 6,1 C 5,6 C 90 % 1015,6 hPa 0,0 l/m 0 min 0 min 0 W/m 3,2 km/h (1 Bft) 100,00 %
22.10.2021 02:22 6,6 C 6,1 C 5,6 C 90 % 1015,6 hPa 0,0 l/m 0 min 0 min 0 W/m 6,4 km/h (2 Bft) 100,00 %
22.10.2021 02:24 6,6 C 6,1 C 5,6 C 90 % 1015,6 hPa 0,0 l/m 0 min 0 min 0 W/m 6,4 km/h (2 Bft) 100,00 %
22.10.2021 02:26 6,6 C 6,1 C 5,6 C 90 % 1015,6 hPa 0,0 l/m 0 min 0 min 0 W/m 6,4 km/h (2 Bft) 100,00 %
22.10.2021 02:28 6,5 C 5,6 C 5,6 C 90 % 1015,6 hPa 0,0 l/m 0 min 0 min 0 W/m 9,7 km/h (2 Bft) 100,00 %
22.10.2021 02:30 6,5 C 5,6 C 5,6 C 90 % 1015,7 hPa 0,0 l/m 0 min 0 min 0 W/m 12,9 km/h (3 Bft) 100,00 %
22.10.2021 02:32 6,5 C 5,6 C 5,6 C 90 % 1015,7 hPa 0,0 l/m 0 min 0 min 0 W/m 9,7 km/h (2 Bft) 100,00 %
22.10.2021 02:34 6,5 C 5,6 C 5,6 C 90 % 1015,7 hPa 0,0 l/m 0 min 0 min 0 W/m 6,4 km/h (2 Bft) 100,00 %
22.10.2021 02:36 6,4 C 5,6 C 5,6 C 90 % 1015,7 hPa 0,0 l/m 0 min 0 min 0 W/m 6,4 km/h (2 Bft) 100,00 %
22.10.2021 02:38 6,4 C 5,6 C 5,6 C 90 % 1015,7 hPa 0,0 l/m 0 min 0 min 0 W/m 16,1 km/h (3 Bft) 100,00 %
22.10.2021 02:40 6,4 C 5,6 C 5,6 C 90 % 1015,8 hPa 0,0 l/m 0 min 0 min 0 W/m 9,7 km/h (2 Bft) 100,00 %
22.10.2021 02:42 6,4 C 5,6 C 5,6 C 90 % 1015,8 hPa 0,0 l/m 0 min 0 min 0 W/m 16,1 km/h (3 Bft) 100,00 %
22.10.2021 02:44 6,3 C 5,6 C 5,6 C 90 % 1015,8 hPa 0,0 l/m 0 min 0 min 0 W/m 6,4 km/h (2 Bft) 100,00 %
22.10.2021 02:46 6,3 C 5,6 C 5,6 C 90 % 1015,7 hPa 0,0 l/m 0 min 0 min 0 W/m 12,9 km/h (3 Bft) 100,00 %
22.10.2021 02:48 6,3 C 5,6 C 5,6 C 90 % 1015,7 hPa 0,0 l/m 0 min 0 min 0 W/m 16,1 km/h (3 Bft) 100,00 %
22.10.2021 02:50 6,3 C 5,6 C 5,6 C 90 % 1015,7 hPa 0,0 l/m 0 min 0 min 0 W/m 9,7 km/h (2 Bft) 100,00 %
22.10.2021 02:52 6,2 C 5,6 C 5,6 C 90 % 1015,7 hPa 0,0 l/m 0 min 0 min 0 W/m 6,4 km/h (2 Bft) 100,00 %
22.10.2021 02:54 6,2 C 5,6 C 5,6 C 91 % 1015,8 hPa 0,0 l/m 0 min 0 min 0 W/m 6,4 km/h (2 Bft) 100,00 %
22.10.2021 02:56 6,2 C 5,6 C 5,6 C 91 % 1015,8 hPa 0,0 l/m 0 min 0 min 0 W/m 22,5 km/h (4 Bft) 100,00 %
22.10.2021 02:58 6,2 C 5,6 C 5,6 C 91 % 1015,8 hPa 0,0 l/m 0 min 0 min 0 W/m 9,7 km/h (2 Bft) 100,00 %
22.10.2021 03:00 6,1 C 5,6 C 5,6 C 91 % 1015,8 hPa 0,0 l/m 0 min 0 min 0 W/m 9,7 km/h (2 Bft) 100,00 %
22.10.2021 03:02 6,1 C 5,6 C 5,6 C 91 % 1015,8 hPa 0,0 l/m 0 min 0 min 0 W/m 16,1 km/h (3 Bft) 100,00 %
22.10.2021 03:04 6,1 C 5,6 C 5,6 C 91 % 1015,8 hPa 0,0 l/m 0 min 0 min 0 W/m 9,7 km/h (2 Bft) 100,00 %
22.10.2021 03:06 6,1 C 5,6 C 5,6 C 91 % 1015,7 hPa 0,0 l/m 0 min 0 min 0 W/m 16,1 km/h (3 Bft) 100,00 %
22.10.2021 03:08 6,1 C 5,6 C 5,6 C 91 % 1015,7 hPa 0,0 l/m 0 min 0 min 0 W/m 6,4 km/h (2 Bft) 100,00 %
22.10.2021 03:10 6,1 C 5,6 C 5,6 C 91 % 1015,7 hPa 0,0 l/m 0 min 0 min 0 W/m 6,4 km/h (2 Bft) 97,87 %
22.10.2021 03:12 6,1 C 5,6 C 5,6 C 91 % 1015,7 hPa 0,0 l/m 0 min 0 min 0 W/m 6,4 km/h (2 Bft) 100,00 %
22.10.2021 03:14 6,1 C 5,6 C 5,6 C 91 % 1015,7 hPa 0,0 l/m 0 min 0 min 0 W/m 6,4 km/h (2 Bft) 97,87 %
22.10.2021 03:16 6,1 C 5,6 C 5,6 C 91 % 1015,7 hPa 0,0 l/m 0 min 0 min 0 W/m 6,4 km/h (2 Bft) 100,00 %
22.10.2021 03:18 6,1 C 5,6 C 5,6 C 91 % 1015,7 hPa 0,0 l/m 0 min 0 min 0 W/m 6,4 km/h (2 Bft) 97,87 %
22.10.2021 03:20 6,1 C 5,6 C 5,6 C 91 % 1015,7 hPa 0,0 l/m 0 min 0 min 0 W/m 6,4 km/h (2 Bft) 100,00 %
22.10.2021 03:22 6,0 C 5,6 C 5,6 C 91 % 1015,7 hPa 0,0 l/m 0 min 0 min 0 W/m 12,9 km/h (3 Bft) 97,87 %
22.10.2021 03:24 6,0 C 5,6 C 5,6 C 91 % 1015,7 hPa 0,0 l/m 0 min 0 min 0 W/m 16,1 km/h (3 Bft) 93,48 %
22.10.2021 03:26 6,0 C 5,6 C 5,6 C 92 % 1015,7 hPa 0,0 l/m 0 min 0 min 0 W/m 19,3 km/h (3 Bft) 91,49 %
22.10.2021 03:28 6,0 C 5,6 C 5,6 C 92 % 1015,6 hPa 0,0 l/m 0 min 0 min 0 W/m 12,9 km/h (3 Bft) 93,62 %
22.10.2021 03:30 6,0 C 5,6 C 5,6 C 92 % 1015,6 hPa 0,0 l/m 0 min 0 min 0 W/m 16,1 km/h (3 Bft) 93,62 %
22.10.2021 03:32 6,0 C 5,6 C 5,6 C 92 % 1015,7 hPa 0,0 l/m 0 min 0 min 0 W/m 12,9 km/h (3 Bft) 89,36 %
22.10.2021 03:34 6,0 C 5,6 C 5,6 C 92 % 1015,7 hPa 0,0 l/m 0 min 0 min 0 W/m 19,3 km/h (3 Bft) 93,48 %
22.10.2021 03:36 6,0 C 5,6 C 5,6 C 92 % 1015,7 hPa 0,0 l/m 0 min 0 min 0 W/m 12,9 km/h (3 Bft) 93,62 %
22.10.2021 03:38 6,0 C 5,6 C 5,6 C 92 % 1015,6 hPa 0,0 l/m 0 min 0 min 0 W/m 19,3 km/h (3 Bft) 93,62 %
22.10.2021 03:40 6,0 C 5,6 C 5,6 C 92 % 1015,7 hPa 0,0 l/m 0 min 0 min 0 W/m 12,9 km/h (3 Bft) 93,62 %
22.10.2021 03:42 6,0 C 5,6 C 5,6 C 92 % 1015,6 hPa 0,0 l/m 0 min 0 min 0 W/m 22,5 km/h (4 Bft) 93,62 %
22.10.2021 03:44 6,0 C 5,6 C 5,6 C 92 % 1015,6 hPa 0,0 l/m 0 min 0 min 0 W/m 22,5 km/h (4 Bft) 89,36 %
22.10.2021 03:46 6,0 C 5,6 C 5,6 C 92 % 1015,6 hPa 0,0 l/m 0 min 0 min 0 W/m 19,3 km/h (3 Bft) 93,62 %
22.10.2021 03:48 6,0 C 5,6 C 5,6 C 92 % 1015,6 hPa 0,0 l/m 0 min 0 min 0 W/m 19,3 km/h (3 Bft) 93,48 %
22.10.2021 03:50 6,0 C 5,6 C 5,6 C 92 % 1015,7 hPa 0,0 l/m 0 min 0 min 0 W/m 16,1 km/h (3 Bft) 93,62 %
22.10.2021 03:52 6,0 C 5,6 C 5,6 C 92 % 1015,6 hPa 0,0 l/m 0 min 0 min 0 W/m 12,9 km/h (3 Bft) 93,75 %
22.10.2021 03:54 6,0 C 5,6 C 5,6 C 92 % 1015,6 hPa 0,0 l/m 0 min 0 min 0 W/m 29,0 km/h (5 Bft) 95,74 %
22.10.2021 03:56 6,0 C 5,6 C 5,0 C 92 % 1015,5 hPa 0,0 l/m 0 min 0 min 0 W/m 19,3 km/h (3 Bft) 95,74 %
22.10.2021 03:58 6,0 C 5,6 C 5,0 C 92 % 1015,5 hPa 0,0 l/m 0 min 0 min 0 W/m 12,9 km/h (3 Bft) 93,48 %
22.10.2021 04:00 5,9 C 5,6 C 5,0 C 92 % 1015,5 hPa 0,0 l/m 0 min 0 min 0 W/m 19,3 km/h (3 Bft) 95,74 %
22.10.2021 04:02 5,9 C 5,6 C 5,0 C 92 % 1015,5 hPa 0,0 l/m 0 min 0 min 0 W/m 12,9 km/h (3 Bft) 38,46 %
22.10.2021 04:04 5,9 C 5,6 C 5,0 C 92 % 1015,5 hPa 0,0 l/m 0 min 0 min 0 W/m 19,3 km/h (3 Bft) 86,36 %
22.10.2021 04:09 5,9 C 5,0 C 5,0 C 92 % 1015,4 hPa 0,0 l/m 0 min 0 min 0 W/m 12,9 km/h (3 Bft) 100,00 %
22.10.2021 04:10 5,8 C 5,0 C 5,0 C 92 % 1015,4 hPa 0,0 l/m 0 min 0 min 0 W/m 16,1 km/h (3 Bft) 100,00 %
22.10.2021 04:12 5,8 C 5,0 C 5,0 C 92 % 1015,4 hPa 0,0 l/m 0 min 0 min 0 W/m 12,9 km/h (3 Bft) 95,74 %
22.10.2021 04:14 5,8 C 5,0 C 5,0 C 92 % 1015,4 hPa 0,0 l/m 0 min 0 min 0 W/m 16,1 km/h (3 Bft) 97,87 %
22.10.2021 04:16 5,8 C 5,0 C 5,0 C 92 % 1015,4 hPa 0,0 l/m 0 min 0 min 0 W/m 16,1 km/h (3 Bft) 97,87 %
22.10.2021 04:18 5,8 C 5,0 C 5,0 C 92 % 1015,4 hPa 0,0 l/m 0 min 0 min 0 W/m 16,1 km/h (3 Bft) 100,00 %
22.10.2021 04:20 5,8 C 5,0 C 5,0 C 92 % 1015,4 hPa 0,0 l/m 0 min 0 min 0 W/m 12,9 km/h (3 Bft) 100,00 %
22.10.2021 04:22 5,8 C 5,0 C 5,0 C 92 % 1015,5 hPa 0,0 l/m 0 min 0 min 0 W/m 22,5 km/h (4 Bft) 100,00 %
22.10.2021 04:24 5,8 C 5,0 C 5,0 C 92 % 1015,5 hPa 0,0 l/m 0 min 0 min 0 W/m 19,3 km/h (3 Bft) 100,00 %
22.10.2021 04:26 5,8 C 5,0 C 5,0 C 92 % 1015,5 hPa 0,0 l/m 0 min 0 min 0 W/m 19,3 km/h (3 Bft) 97,87 %
22.10.2021 04:28 5,7 C 5,0 C 5,0 C 92 % 1015,6 hPa 0,0 l/m 0 min 0 min 0 W/m 12,9 km/h (3 Bft) 100,00 %
22.10.2021 04:30 5,7 C 5,0 C 5,0 C 91 % 1015,6 hPa 0,0 l/m 0 min 0 min 0 W/m 12,9 km/h (3 Bft) 100,00 %
22.10.2021 04:32 5,7 C 5,0 C 5,0 C 91 % 1015,6 hPa 0,0 l/m 0 min 0 min 0 W/m 16,1 km/h (3 Bft) 100,00 %
22.10.2021 04:34 5,7 C 5,0 C 5,0 C 91 % 1015,6 hPa 0,0 l/m 0 min 0 min 0 W/m 9,7 km/h (2 Bft) 96,00 %
22.10.2021 04:36 5,6 C 5,0 C 5,0 C 92 % 1015,6 hPa 0,0 l/m 0 min 0 min 0 W/m 12,9 km/h (3 Bft) 100,00 %
22.10.2021 04:38 5,6 C 5,0 C 5,0 C 91 % 1015,6 hPa 0,0 l/m 0 min 0 min 0 W/m 9,7 km/h (2 Bft) 100,00 %
22.10.2021 04:40 5,6 C 5,0 C 5,0 C 91 % 1015,5 hPa 0,0 l/m 0 min 0 min 0 W/m 6,4 km/h (2 Bft) 97,87 %
22.10.2021 04:42 5,6 C 5,0 C 5,0 C 91 % 1015,6 hPa 0,0 l/m 0 min 0 min 0 W/m 6,4 km/h (2 Bft) 100,00 %
22.10.2021 04:44 5,6 C 5,0 C 5,0 C 91 % 1015,5 hPa 0,0 l/m 0 min 0 min 0 W/m 16,1 km/h (3 Bft) 100,00 %
22.10.2021 04:46 5,6 C 5,0 C 5,0 C 91 % 1015,5 hPa 0,0 l/m 0 min 0 min 0 W/m 12,9 km/h (3 Bft) 100,00 %
22.10.2021 04:48 5,6 C 5,0 C 5,0 C 91 % 1015,6 hPa 0,0 l/m 0 min 0 min 0 W/m 16,1 km/h (3 Bft) 100,00 %
22.10.2021 04:50 5,6 C 5,0 C 5,0 C 91 % 1015,5 hPa 0,0 l/m 0 min 0 min 0 W/m 12,9 km/h (3 Bft) 100,00 %
22.10.2021 04:52 5,5 C 5,0 C 5,0 C 91 % 1015,5 hPa 0,0 l/m 0 min 0 min 0 W/m 12,9 km/h (3 Bft) 100,00 %
22.10.2021 04:54 5,5 C 5,0 C 5,0 C 91 % 1015,5 hPa 0,0 l/m 0 min 0 min 0 W/m 12,9 km/h (3 Bft) 97,87 %
22.10.2021 04:56 5,5 C 5,0 C 5,0 C 91 % 1015,4 hPa 0,0 l/m 0 min 0 min 0 W/m 12,9 km/h (3 Bft) 100,00 %
22.10.2021 04:58 5,5 C 5,0 C 5,0 C 91 % 1015,4 hPa 0,0 l/m 0 min 0 min 0 W/m 12,9 km/h (3 Bft) 100,00 %
22.10.2021 05:00 5,5 C 5,0 C 5,0 C 91 % 1015,4 hPa 0,0 l/m 0 min 0 min 0 W/m 16,1 km/h (3 Bft) 100,00 %
22.10.2021 05:02 5,5 C 5,0 C 5,0 C 91 % 1015,6 hPa 0,0 l/m 0 min 0 min 0 W/m 9,7 km/h (2 Bft) 97,87 %
22.10.2021 05:04 5,5 C 5,0 C 5,0 C 91 % 1015,5 hPa 0,0 l/m 0 min 0 min 0 W/m 9,7 km/h (2 Bft) 100,00 %
22.10.2021 05:06 5,5 C 5,0 C 5,0 C 91 % 1015,5 hPa 0,0 l/m 0 min 0 min 0 W/m 12,9 km/h (3 Bft) 100,00 %
22.10.2021 05:08 5,5 C 5,0 C 5,0 C 91 % 1015,6 hPa 0,0 l/m 0 min 0 min 0 W/m 19,3 km/h (3 Bft) 97,83 %
22.10.2021 05:10 5,5 C 5,0 C 5,0 C 91 % 1015,5 hPa 0,0 l/m 0 min 0 min 0 W/m 12,9 km/h (3 Bft) 97,87 %
22.10.2021 05:12 5,5 C 5,0 C 5,0 C 90 % 1015,6 hPa 0,0 l/m 0 min 0 min 0 W/m 12,9 km/h (3 Bft) 97,87 %
22.10.2021 05:14 5,5 C 5,0 C 5,0 C 90 % 1015,6 hPa 0,0 l/m 0 min 0 min 0 W/m 12,9 km/h (3 Bft) 97,87 %
22.10.2021 05:16 5,5 C 5,0 C 5,0 C 90 % 1015,6 hPa 0,0 l/m 0 min 0 min 0 W/m 22,5 km/h (4 Bft) 97,87 %
22.10.2021 05:18 5,4 C 5,0 C 5,0 C 90 % 1015,6 hPa 0,0 l/m 0 min 0 min 0 W/m 12,9 km/h (3 Bft) 97,87 %
22.10.2021 05:20 5,4 C 5,0 C 5,0 C 90 % 1015,6 hPa 0,0 l/m 0 min 0 min 0 W/m 16,1 km/h (3 Bft) 97,83 %
22.10.2021 05:22 5,5 C 5,0 C 5,0 C 90 % 1015,6 hPa 0,0 l/m 0 min 0 min 0 W/m 6,4 km/h (2 Bft) 95,74 %
22.10.2021 05:24 5,4 C 5,0 C 5,0 C 90 % 1015,6 hPa 0,0 l/m 0 min 0 min 0 W/m 16,1 km/h (3 Bft) 97,87 %
22.10.2021 05:26 5,4 C 5,0 C 5,0 C 90 % 1015,6 hPa 0,0 l/m 0 min 0 min 0 W/m 16,1 km/h (3 Bft) 95,74 %
22.10.2021 05:28 5,4 C 5,0 C 5,0 C 90 % 1015,5 hPa 0,0 l/m 0 min 0 min 0 W/m 12,9 km/h (3 Bft) 97,87 %
22.10.2021 05:30 5,4 C 5,0 C 5,0 C 90 % 1015,5 hPa 0,0 l/m 0 min 0 min 0 W/m 16,1 km/h (3 Bft) 97,87 %
22.10.2021 05:32 5,4 C 5,0 C 5,0 C 90 % 1015,4 hPa 0,0 l/m 0 min 0 min 0 W/m 22,5 km/h (4 Bft) 97,83 %
22.10.2021 05:34 5,4 C 5,0 C 5,0 C 90 % 1015,3 hPa 0,0 l/m 0 min 0 min 0 W/m 19,3 km/h (3 Bft) 95,74 %
22.10.2021 05:36 5,4 C 5,0 C 5,0 C 90 % 1015,4 hPa 0,0 l/m 0 min 0 min 0 W/m 22,5 km/h (4 Bft) 94,87 %
22.10.2021 05:38 5,4 C 5,0 C 5,0 C 90 % 1015,3 hPa 0,0 l/m 0 min 0 min 0 W/m 19,3 km/h (3 Bft) 95,74 %
22.10.2021 05:40 5,4 C 5,0 C 5,0 C 90 % 1015,3 hPa 0,0 l/m 0 min 0 min 0 W/m 25,7 km/h (4 Bft) 97,83 %
22.10.2021 05:42 5,4 C 5,0 C 5,0 C 90 % 1015,3 hPa 0,0 l/m 0 min 0 min 0 W/m 16,1 km/h (3 Bft) 97,87 %
22.10.2021 05:44 5,4 C 5,0 C 5,0 C 90 % 1015,3 hPa 0,0 l/m 0 min 0 min 0 W/m 25,7 km/h (4 Bft) 97,87 %
22.10.2021 05:46 5,4 C 5,0 C 5,0 C 90 % 1015,3 hPa 0,0 l/m 0 min 0 min 0 W/m 25,7 km/h (4 Bft) 97,87 %
22.10.2021 05:48 5,4 C 5,0 C 5,0 C 89 % 1015,3 hPa 0,0 l/m 0 min 0 min 0 W/m 19,3 km/h (3 Bft) 97,87 %
22.10.2021 05:50 5,4 C 5,0 C 5,0 C 89 % 1015,3 hPa 0,0 l/m 0 min 0 min 0 W/m 19,3 km/h (3 Bft) 97,87 %
22.10.2021 05:52 5,4 C 5,0 C 5,0 C 89 % 1015,4 hPa 0,0 l/m 0 min 0 min 0 W/m 12,9 km/h (3 Bft) 97,83 %
22.10.2021 05:54 5,4 C 5,0 C 5,0 C 89 % 1015,3 hPa 0,0 l/m 0 min 0 min 0 W/m 16,1 km/h (3 Bft) 97,87 %
22.10.2021 05:56 5,4 C 5,0 C 5,0 C 89 % 1015,3 hPa 0,0 l/m 0 min 0 min 0 W/m 22,5 km/h (4 Bft) 97,87 %
22.10.2021 05:58 5,4 C 5,0 C 5,0 C 89 % 1015,4 hPa 0,0 l/m 0 min 0 min 0 W/m 16,1 km/h (3 Bft) 95,74 %
22.10.2021 06:00 5,4 C 5,0 C 5,0 C 89 % 1015,3 hPa 0,0 l/m 0 min 0 min 0 W/m 16,1 km/h (3 Bft) 97,87 %
22.10.2021 06:02 5,4 C 5,0 C 5,0 C 89 % 1015,3 hPa 0,0 l/m 0 min 0 min 0 W/m 12,9 km/h (3 Bft) 95,74 %
22.10.2021 06:04 5,4 C 5,0 C 5,0 C 89 % 1015,4 hPa 0,0 l/m 0 min 0 min 0 W/m 12,9 km/h (3 Bft) 97,83 %
22.10.2021 06:08 5,4 C 5,0 C 5,0 C 89 % 1015,4 hPa 0,0 l/m 0 min 0 min 0 W/m 16,1 km/h (3 Bft) 97,87 %
22.10.2021 06:10 5,4 C 5,0 C 5,0 C 89 % 1015,3 hPa 0,0 l/m 0 min 0 min 0 W/m 12,9 km/h (3 Bft) 97,87 %
22.10.2021 06:12 5,4 C 5,0 C 5,0 C 89 % 1015,3 hPa 0,0 l/m 0 min 0 min 0 W/m 19,3 km/h (3 Bft) 93,62 %
22.10.2021 06:14 5,4 C 5,0 C 5,0 C 89 % 1015,3 hPa 0,0 l/m 0 min 0 min 0 W/m 19,3 km/h (3 Bft) 97,87 %
22.10.2021 06:16 5,4 C 5,0 C 5,0 C 89 % 1015,2 hPa 0,0 l/m 0 min 0 min 0 W/m 6,4 km/h (2 Bft) 56,52 %
22.10.2021 06:18 5,3 C 5,0 C 5,0 C 89 % 1015,2 hPa 0,0 l/m 0 min 0 min 0 W/m 25,7 km/h (4 Bft) 92,50 %
22.10.2021 06:20 5,4 C 5,0 C 5,0 C 89 % 1015,2 hPa 0,0 l/m 0 min 0 min 0 W/m 12,9 km/h (3 Bft) 100,00 %
22.10.2021 06:22 5,3 C 5,0 C 5,0 C 89 % 1015,2 hPa 0,0 l/m 0 min 0 min 0 W/m 12,9 km/h (3 Bft) 100,00 %
22.10.2021 06:24 5,4 C 5,0 C 5,0 C 89 % 1015,3 hPa 0,0 l/m 0 min 0 min 0 W/m 19,3 km/h (3 Bft) 100,00 %
22.10.2021 06:26 5,4 C 5,0 C 5,0 C 89 % 1015,2 hPa 0,0 l/m 0 min 0 min 0 W/m 12,9 km/h (3 Bft) 100,00 %
22.10.2021 06:28 5,4 C 5,0 C 5,0 C 89 % 1015,2 hPa 0,0 l/m 0 min 0 min 0 W/m 16,1 km/h (3 Bft) 100,00 %
22.10.2021 06:30 5,4 C 5,0 C 5,0 C 89 % 1015,3 hPa 0,0 l/m 0 min 0 min 0 W/m 16,1 km/h (3 Bft) 100,00 %
22.10.2021 06:32 5,4 C 5,0 C 5,0 C 88 % 1015,0 hPa 0,0 l/m 0 min 0 min 0 W/m 16,1 km/h (3 Bft) 100,00 %
22.10.2021 06:34 5,4 C 5,0 C 5,0 C 88 % 1015,1 hPa 0,0 l/m 0 min 0 min 0 W/m 12,9 km/h (3 Bft) 100,00 %
22.10.2021 06:36 5,4 C 5,0 C 5,0 C 88 % 1015,1 hPa 0,0 l/m 0 min 0 min 0 W/m 16,1 km/h (3 Bft) 97,87 %
22.10.2021 06:38 5,4 C 5,0 C 5,0 C 88 % 1015,1 hPa 0,0 l/m 0 min 0 min 0 W/m 16,1 km/h (3 Bft) 100,00 %
22.10.2021 06:40 5,4 C 5,0 C 5,0 C 88 % 1015,2 hPa 0,0 l/m 0 min 0 min 0 W/m 12,9 km/h (3 Bft) 97,87 %
22.10.2021 06:42 5,4 C 5,0 C 5,0 C 88 % 1015,1 hPa 0,0 l/m 0 min 0 min 0 W/m 6,4 km/h (2 Bft) 97,87 %
22.10.2021 06:44 5,4 C 5,0 C 5,0 C 88 % 1015,1 hPa 0,0 l/m 0 min 0 min 0 W/m 16,1 km/h (3 Bft) 97,87 %
22.10.2021 06:46 5,4 C 5,0 C 5,0 C 88 % 1015,1 hPa 0,0 l/m 0 min 0 min 0 W/m 22,5 km/h (4 Bft) 97,87 %
22.10.2021 06:48 5,4 C 5,0 C 5,0 C 88 % 1015,2 hPa 0,0 l/m 0 min 0 min 0 W/m 25,7 km/h (4 Bft) 95,74 %
22.10.2021 06:50 5,4 C 5,0 C 5,0 C 88 % 1015,1 hPa 0,0 l/m 0 min 0 min 0 W/m 6,4 km/h (2 Bft) 97,83 %
22.10.2021 06:52 5,4 C 5,0 C 5,0 C 88 % 1015,2 hPa 0,0 l/m 0 min 0 min 0 W/m 16,1 km/h (3 Bft) 95,74 %
22.10.2021 06:54 5,4 C 5,0 C 5,0 C 88 % 1015,2 hPa 0,0 l/m 0 min 0 min 0 W/m 19,3 km/h (3 Bft) 97,87 %
22.10.2021 06:56 5,4 C 5,0 C 5,0 C 88 % 1015,2 hPa 0,0 l/m 0 min 0 min 0 W/m 12,9 km/h (3 Bft) 97,87 %
22.10.2021 06:58 5,4 C 5,0 C 5,0 C 88 % 1015,2 hPa 0,0 l/m 0 min 0 min 0 W/m 12,9 km/h (3 Bft) 95,74 %
22.10.2021 07:00 5,4 C 5,0 C 4,5 C 88 % 1015,3 hPa 0,0 l/m 0 min 0 min 0 W/m 6,4 km/h (2 Bft) 95,74 %
22.10.2021 07:02 5,4 C 5,0 C 4,5 C 88 % 1015,3 hPa 0,0 l/m 0 min 0 min 0 W/m 6,4 km/h (2 Bft) 93,48 %
22.10.2021 07:04 5,4 C 5,0 C 4,5 C 88 % 1015,4 hPa 0,0 l/m 0 min 0 min 0 W/m 12,9 km/h (3 Bft) 95,74 %
22.10.2021 07:06 5,4 C 5,0 C 5,0 C 88 % 1015,4 hPa 0,0 l/m 0 min 0 min 0 W/m 19,3 km/h (3 Bft) 89,36 %
22.10.2021 07:08 5,4 C 5,0 C 4,5 C 88 % 1015,5 hPa 0,0 l/m 0 min 0 min 0 W/m 16,1 km/h (3 Bft) 95,74 %
22.10.2021 07:10 5,4 C 5,0 C 4,5 C 88 % 1015,4 hPa 0,0 l/m 0 min 0 min 0 W/m 19,3 km/h (3 Bft) 95,74 %
22.10.2021 07:12 5,4 C 5,0 C 4,5 C 88 % 1015,5 hPa 0,0 l/m 0 min 0 min 0 W/m 9,7 km/h (2 Bft) 95,74 %
22.10.2021 07:14 5,4 C 5,0 C 4,5 C 88 % 1015,5 hPa 0,0 l/m 0 min 0 min 0 W/m 9,7 km/h (2 Bft) 95,74 %
22.10.2021 07:16 5,4 C 5,0 C 5,0 C 88 % 1015,5 hPa 0,0 l/m 0 min 0 min 0 W/m 16,1 km/h (3 Bft) 93,48 %
22.10.2021 07:18 5,4 C 5,0 C 5,0 C 88 % 1015,5 hPa 0,0 l/m 0 min 0 min 0 W/m 16,1 km/h (3 Bft) 93,62 %
22.10.2021 07:20 5,4 C 5,0 C 4,5 C 88 % 1015,6 hPa 0,0 l/m 0 min 0 min 0 W/m 9,7 km/h (2 Bft) 97,87 %
22.10.2021 07:22 5,4 C 5,0 C 4,5 C 88 % 1015,6 hPa 0,0 l/m 0 min 0 min 0 W/m 12,9 km/h (3 Bft) 93,62 %
22.10.2021 07:24 5,5 C 5,0 C 4,5 C 88 % 1015,5 hPa 0,0 l/m 0 min 0 min 0 W/m 12,9 km/h (3 Bft) 95,74 %
22.10.2021 07:26 5,5 C 5,0 C 4,5 C 88 % 1015,6 hPa 0,0 l/m 0 min 0 min 0 W/m 22,5 km/h (4 Bft) 95,65 %
22.10.2021 07:28 5,5 C 5,0 C 5,0 C 88 % 1015,5 hPa 0,0 l/m 0 min 0 min 0 W/m 29,0 km/h (5 Bft) 97,87 %
22.10.2021 07:30 5,5 C 5,0 C 5,0 C 88 % 1015,6 hPa 0,0 l/m 0 min 0 min 0 W/m 16,1 km/h (3 Bft) 97,87 %
22.10.2021 07:32 5,5 C 5,0 C 5,0 C 88 % 1015,5 hPa 0,0 l/m 0 min 0 min 0 W/m 12,9 km/h (3 Bft) 97,87 %
22.10.2021 07:34 5,5 C 5,0 C 5,0 C 88 % 1015,5 hPa 0,0 l/m 0 min 0 min 0 W/m 12,9 km/h (3 Bft) 100,00 %
22.10.2021 07:36 5,5 C 5,0 C 5,0 C 88 % 1015,6 hPa 0,0 l/m 0 min 0 min 0 W/m 19,3 km/h (3 Bft) 100,00 %
22.10.2021 07:38 5,5 C 5,0 C 5,0 C 88 % 1015,6 hPa 0,0 l/m 0 min 0 min 0 W/m 16,1 km/h (3 Bft) 100,00 %
22.10.2021 07:40 5,5 C 5,0 C 5,0 C 87 % 1015,6 hPa 0,0 l/m 0 min 0 min 0 W/m 16,1 km/h (3 Bft) 100,00 %
22.10.2021 07:42 5,6 C 5,0 C 5,0 C 87 % 1015,6 hPa 0,0 l/m 0 min 0 min 0 W/m 12,9 km/h (3 Bft) 100,00 %
22.10.2021 07:44 5,6 C 5,0 C 5,0 C 87 % 1015,5 hPa 0,0 l/m 0 min 0 min 0 W/m 19,3 km/h (3 Bft) 100,00 %
22.10.2021 07:46 5,6 C 5,0 C 5,0 C 87 % 1015,5 hPa 0,0 l/m 0 min 0 min 0 W/m 12,9 km/h (3 Bft) 97,87 %
22.10.2021 07:48 5,6 C 5,0 C 5,0 C 87 % 1015,4 hPa 0,0 l/m 0 min 0 min 0 W/m 16,1 km/h (3 Bft) 100,00 %
22.10.2021 07:50 5,6 C 5,0 C 5,0 C 87 % 1015,5 hPa 0,0 l/m 0 min 0 min 0 W/m 16,1 km/h (3 Bft) 97,83 %
22.10.2021 07:52 5,6 C 5,0 C 5,0 C 87 % 1015,4 hPa 0,0 l/m 0 min 0 min 0 W/m 22,5 km/h (4 Bft) 100,00 %
22.10.2021 07:54 5,6 C 5,0 C 5,0 C 87 % 1015,4 hPa 0,0 l/m 0 min 0 min 0 W/m 16,1 km/h (3 Bft) 97,87 %
22.10.2021 07:56 5,6 C 5,0 C 5,0 C 87 % 1015,3 hPa 0,0 l/m 0 min 0 min 0 W/m 12,9 km/h (3 Bft) 97,87 %
22.10.2021 07:58 5,6 C 5,0 C 5,0 C 87 % 1015,3 hPa 0,0 l/m 0 min 0 min 0 W/m 12,9 km/h (3 Bft) 97,87 %
22.10.2021 08:00 5,6 C 5,0 C 5,0 C 87 % 1015,3 hPa 0,0 l/m 0 min 0 min 0 W/m 12,9 km/h (3 Bft) 97,87 %
22.10.2021 08:02 5,6 C 5,0 C 5,0 C 87 % 1015,3 hPa 0,0 l/m 0 min 0 min 0 W/m 9,7 km/h (2 Bft) 97,83 %
22.10.2021 08:04 5,6 C 5,0 C 5,0 C 87 % 1015,3 hPa 0,0 l/m 0 min 0 min 0 W/m 19,3 km/h (3 Bft) 97,87 %
22.10.2021 08:06 5,6 C 5,0 C 5,0 C 87 % 1015,3 hPa 0,0 l/m 0 min 0 min 0 W/m 12,9 km/h (3 Bft) 95,74 %
22.10.2021 08:11 5,6 C 5,0 C 5,0 C 87 % 1015,3 hPa 0,0 l/m 0 min 0 min 0 W/m 25,7 km/h (4 Bft) 98,18 %
22.10.2021 08:12 5,6 C 5,0 C 5,0 C 87 % 1015,3 hPa 0,0 l/m 0 min 0 min 4 W/m 12,9 km/h (3 Bft) 100,00 %
22.10.2021 08:14 5,6 C 5,0 C 5,0 C 87 % 1015,2 hPa 0,0 l/m 0 min 0 min 5 W/m 12,9 km/h (3 Bft) 97,83 %
22.10.2021 08:16 5,6 C 5,0 C 5,0 C 87 % 1015,2 hPa 0,0 l/m 0 min 0 min 5 W/m 12,9 km/h (3 Bft) 95,74 %
22.10.2021 08:18 5,6 C 5,0 C 5,0 C 87 % 1015,2 hPa 0,0 l/m 0 min 0 min 6 W/m 16,1 km/h (3 Bft) 95,74 %
22.10.2021 08:20 5,6 C 5,0 C 5,0 C 87 % 1015,1 hPa 0,0 l/m 0 min 0 min 7 W/m 12,9 km/h (3 Bft) 97,87 %
22.10.2021 08:22 5,6 C 5,0 C 5,0 C 87 % 1015,1 hPa 0,0 l/m 0 min 0 min 8 W/m 12,9 km/h (3 Bft) 97,87 %
22.10.2021 08:24 5,6 C 5,0 C 5,0 C 87 % 1015,1 hPa 0,0 l/m 0 min 0 min 9 W/m 19,3 km/h (3 Bft) 95,65 %
22.10.2021 08:26 5,6 C 5,0 C 5,0 C 87 % 1015,1 hPa 0,0 l/m 0 min 0 min 10 W/m 9,7 km/h (2 Bft) 95,74 %
22.10.2021 08:28 5,6 C 5,0 C 5,0 C 87 % 1015,1 hPa 0,0 l/m 0 min 0 min 11 W/m 16,1 km/h (3 Bft) 97,87 %
22.10.2021 08:30 5,6 C 5,0 C 5,0 C 87 % 1015,1 hPa 0,0 l/m 0 min 0 min 11 W/m 19,3 km/h (3 Bft) 95,74 %
22.10.2021 08:32 5,6 C 5,0 C 5,0 C 87 % 1015,1 hPa 0,0 l/m 0 min 0 min 12 W/m 12,9 km/h (3 Bft) 97,87 %
22.10.2021 08:34 5,6 C 5,0 C 5,0 C 87 % 1015,1 hPa 0,0 l/m 0 min 0 min 12 W/m 12,9 km/h (3 Bft) 97,87 %
22.10.2021 08:36 5,6 C 5,0 C 5,0 C 87 % 1015,1 hPa 0,0 l/m 0 min 0 min 13 W/m 16,1 km/h (3 Bft) 97,87 %
22.10.2021 08:38 5,6 C 5,0 C 5,0 C 87 % 1015,1 hPa 0,0 l/m 0 min 0 min 14 W/m 22,5 km/h (4 Bft) 100,00 %
22.10.2021 08:40 5,6 C 5,0 C 5,0 C 87 % 1015,1 hPa 0,0 l/m 0 min 0 min 15 W/m 19,3 km/h (3 Bft) 100,00 %
22.10.2021 08:42 5,6 C 5,0 C 5,0 C 87 % 1015,0 hPa 0,0 l/m 0 min 0 min 16 W/m 16,1 km/h (3 Bft) 100,00 %
22.10.2021 08:44 5,7 C 5,6 C 5,0 C 87 % 1015,1 hPa 0,0 l/m 0 min 0 min 18 W/m 16,1 km/h (3 Bft) 97,87 %
22.10.2021 08:46 5,7 C 5,6 C 5,0 C 87 % 1015,1 hPa 0,0 l/m 0 min 0 min 18 W/m 19,3 km/h (3 Bft) 100,00 %
22.10.2021 08:48 5,7 C 5,6 C 5,0 C 87 % 1015,1 hPa 0,0 l/m 0 min 0 min 19 W/m 16,1 km/h (3 Bft) 95,74 %
22.10.2021 08:50 5,8 C 5,6 C 5,0 C 86 % 1015,0 hPa 0,0 l/m 0 min 0 min 19 W/m 19,3 km/h (3 Bft) 95,65 %
22.10.2021 08:52 5,8 C 5,6 C 5,0 C 87 % 1015,0 hPa 0,0 l/m 0 min 0 min 19 W/m 16,1 km/h (3 Bft) 97,87 %
22.10.2021 08:54 5,8 C 5,6 C 5,0 C 86 % 1015,1 hPa 0,0 l/m 0 min 0 min 21 W/m 22,5 km/h (4 Bft) 97,87 %
22.10.2021 08:56 5,9 C 5,6 C 5,0 C 86 % 1015,1 hPa 0,0 l/m 0 min 0 min 21 W/m 22,5 km/h (4 Bft) 95,74 %
22.10.2021 08:58 5,9 C 5,6 C 5,0 C 86 % 1015,2 hPa 0,0 l/m 0 min 0 min 23 W/m 12,9 km/h (3 Bft) 97,87 %
22.10.2021 09:00 5,9 C 5,6 C 5,0 C 86 % 1015,2 hPa 0,0 l/m 0 min 0 min 25 W/m 19,3 km/h (3 Bft) 97,83 %
22.10.2021 09:02 5,9 C 5,6 C 5,0 C 86 % 1015,1 hPa 0,0 l/m 0 min 0 min 25 W/m 22,5 km/h (4 Bft) 95,74 %
22.10.2021 09:04 6,0 C 5,6 C 5,0 C 86 % 1015,2 hPa 0,0 l/m 0 min 0 min 25 W/m 9,7 km/h (2 Bft) 95,74 %
22.10.2021 09:06 6,0 C 5,6 C 5,0 C 86 % 1015,2 hPa 0,0 l/m 0 min 0 min 26 W/m 19,3 km/h (3 Bft) 97,87 %
22.10.2021 09:08 6,0 C 5,6 C 5,0 C 86 % 1015,2 hPa 0,0 l/m 0 min 0 min 26 W/m 16,1 km/h (3 Bft) 97,87 %
22.10.2021 09:10 6,0 C 5,6 C 5,0 C 86 % 1015,3 hPa 0,0 l/m 0 min 0 min 28 W/m 16,1 km/h (3 Bft) 97,87 %
22.10.2021 09:12 6,1 C 5,6 C 5,0 C 86 % 1015,2 hPa 0,0 l/m 0 min 0 min 33 W/m 6,4 km/h (2 Bft) 97,83 %
22.10.2021 09:14 6,1 C 6,1 C 5,0 C 86 % 1015,3 hPa 0,0 l/m 0 min 0 min 56 W/m 12,9 km/h (3 Bft) 97,87 %
22.10.2021 09:16 6,1 C 6,1 C 5,6 C 86 % 1015,3 hPa 0,0 l/m 0 min 0 min 50 W/m 16,1 km/h (3 Bft) 97,87 %
22.10.2021 09:18 6,2 C 6,1 C 5,6 C 86 % 1015,4 hPa 0,0 l/m 0 min 0 min 49 W/m 16,1 km/h (3 Bft) 100,00 %
22.10.2021 09:20 6,3 C 6,1 C 5,6 C 86 % 1015,4 hPa 0,0 l/m 0 min 0 min 51 W/m 12,9 km/h (3 Bft) 100,00 %
22.10.2021 09:22 6,3 C 6,1 C 5,6 C 86 % 1015,4 hPa 0,0 l/m 0 min 0 min 46 W/m 12,9 km/h (3 Bft) 100,00 %
22.10.2021 09:24 6,4 C 6,1 C 5,6 C 86 % 1015,4 hPa 0,0 l/m 0 min 0 min 33 W/m 9,7 km/h (2 Bft) 97,83 %
22.10.2021 09:26 6,4 C 6,1 C 5,6 C 86 % 1015,4 hPa 0,0 l/m 0 min 0 min 34 W/m 16,1 km/h (3 Bft) 100,00 %
22.10.2021 09:28 6,4 C 6,1 C 5,6 C 86 % 1015,4 hPa 0,0 l/m 0 min 0 min 41 W/m 12,9 km/h (3 Bft) 100,00 %
22.10.2021 09:30 6,4 C 6,1 C 5,6 C 86 % 1015,5 hPa 0,0 l/m 0 min 0 min 56 W/m 6,4 km/h (2 Bft) 100,00 %
22.10.2021 09:32 6,4 C 6,1 C 5,6 C 86 % 1015,5 hPa 0,0 l/m 0 min 0 min 54 W/m 12,9 km/h (3 Bft) 97,87 %
22.10.2021 09:34 6,5 C 6,1 C 5,6 C 86 % 1015,4 hPa 0,0 l/m 0 min 0 min 56 W/m 19,3 km/h (3 Bft) 100,00 %
22.10.2021 09:36 6,5 C 6,1 C 5,6 C 86 % 1015,5 hPa 0,0 l/m 0 min 0 min 44 W/m 6,4 km/h (2 Bft) 100,00 %
22.10.2021 09:38 6,5 C 6,1 C 5,6 C 86 % 1015,5 hPa 0,0 l/m 0 min 0 min 31 W/m 16,1 km/h (3 Bft) 100,00 %
22.10.2021 09:40 6,6 C 6,1 C 5,6 C 86 % 1015,5 hPa 0,0 l/m 0 min 0 min 33 W/m 22,5 km/h (4 Bft) 56,52 %
22.10.2021 09:42 6,6 C 6,1 C 5,6 C 86 % 1015,5 hPa 0,0 l/m 0 min 0 min 36 W/m 16,1 km/h (3 Bft) 100,00 %
22.10.2021 09:44 6,6 C 6,7 C 5,6 C 86 % 1015,5 hPa 0,0 l/m 0 min 0 min 37 W/m 12,9 km/h (3 Bft) 97,87 %
22.10.2021 09:46 6,7 C 6,7 C 5,6 C 86 % 1015,5 hPa 0,0 l/m 0 min 0 min 38 W/m 22,5 km/h (4 Bft) 95,74 %
22.10.2021 09:48 6,8 C 6,7 C 5,6 C 85 % 1015,5 hPa 0,0 l/m 0 min 0 min 40 W/m 19,3 km/h (3 Bft) 97,83 %
22.10.2021 09:50 6,8 C 6,7 C 6,1 C 86 % 1015,5 hPa 0,0 l/m 0 min 0 min 40 W/m 22,5 km/h (4 Bft) 97,87 %
22.10.2021 09:52 6,9 C 6,7 C 6,1 C 85 % 1015,5 hPa 0,0 l/m 0 min 0 min 41 W/m 16,1 km/h (3 Bft) 97,87 %
22.10.2021 09:54 6,9 C 6,7 C 6,1 C 85 % 1015,5 hPa 0,0 l/m 0 min 0 min 40 W/m 12,9 km/h (3 Bft) 97,87 %
22.10.2021 09:56 6,9 C 6,7 C 6,1 C 85 % 1015,5 hPa 0,0 l/m 0 min 0 min 39 W/m 16,1 km/h (3 Bft) 97,87 %
22.10.2021 09:58 7,0 C 6,7 C 6,1 C 85 % 1015,6 hPa 0,0 l/m 0 min 0 min 39 W/m 19,3 km/h (3 Bft) 95,74 %
22.10.2021 10:00 7,0 C 6,7 C 6,1 C 85 % 1015,6 hPa 0,0 l/m 0 min 0 min 40 W/m 9,7 km/h (2 Bft) 97,83 %
22.10.2021 10:02 7,1 C 7,2 C 6,1 C 85 % 1015,5 hPa 0,0 l/m 0 min 0 min 40 W/m 19,3 km/h (3 Bft) 95,74 %
22.10.2021 10:04 7,1 C 7,2 C 6,1 C 85 % 1015,6 hPa 0,0 l/m 0 min 0 min 50 W/m 19,3 km/h (3 Bft) 97,92 %
22.10.2021 10:06 7,2 C 7,2 C 6,1 C 85 % 1015,6 hPa 0,0 l/m 0 min 0 min 45 W/m 19,3 km/h (3 Bft) 97,87 %
22.10.2021 10:08 7,3 C 7,2 C 6,1 C 85 % 1015,7 hPa 0,0 l/m 0 min 0 min 49 W/m 29,0 km/h (5 Bft) 97,87 %
22.10.2021 10:10 7,3 C 7,2 C 6,1 C 85 % 1015,6 hPa 0,0 l/m 0 min 0 min 50 W/m 22,5 km/h (4 Bft) 97,87 %
22.10.2021 10:12 7,4 C 7,2 C 6,1 C 84 % 1015,6 hPa 0,0 l/m 0 min 0 min 68 W/m 16,1 km/h (3 Bft) 95,65 %
22.10.2021 10:14 7,4 C 7,2 C 6,7 C 84 % 1015,7 hPa 0,0 l/m 0 min 0 min 128 W/m 16,1 km/h (3 Bft) 97,87 %
22.10.2021 10:16 7,5 C 7,8 C 6,7 C 84 % 1015,7 hPa 0,0 l/m 0 min 0 min 124 W/m 19,3 km/h (3 Bft) 95,74 %
22.10.2021 10:18 7,5 C 7,8 C 6,7 C 84 % 1015,7 hPa 0,0 l/m 0 min 0 min 118 W/m 16,1 km/h (3 Bft) 97,87 %
22.10.2021 10:20 7,6 C 7,8 C 6,7 C 84 % 1015,7 hPa 0,0 l/m 0 min 0 min 120 W/m 22,5 km/h (4 Bft) 97,87 %
22.10.2021 10:22 7,7 C 7,8 C 6,7 C 84 % 1015,7 hPa 0,0 l/m 0 min 0 min 134 W/m 29,0 km/h (5 Bft) 95,65 %
22.10.2021 10:24 7,8 C 7,8 C 6,7 C 84 % 1015,7 hPa 0,0 l/m 0 min 0 min 133 W/m 22,5 km/h (4 Bft) 97,87 %
22.10.2021 10:26 7,8 C 7,8 C 7,3 C 83 % 1015,7 hPa 0,0 l/m 0 min 0 min 139 W/m 35,4 km/h (5 Bft) 95,74 %
22.10.2021 10:28 7,9 C 7,8 C 7,3 C 83 % 1015,7 hPa 0,0 l/m 0 min 0 min 142 W/m 16,1 km/h (3 Bft) 95,74 %
22.10.2021 10:30 8,0 C 8,3 C 7,3 C 83 % 1015,9 hPa 0,0 l/m 2 min 0 min 160 W/m 22,5 km/h (4 Bft) 95,74 %
22.10.2021 10:32 8,1 C 7,8 C 7,3 C 83 % 1015,8 hPa 0,0 l/m 0 min 0 min 79 W/m 16,1 km/h (3 Bft) 93,62 %
22.10.2021 10:34 8,1 C 7,8 C 7,3 C 83 % 1015,8 hPa 0,0 l/m 0 min 0 min 67 W/m 19,3 km/h (3 Bft) 97,83 %
22.10.2021 10:36 8,1 C 7,8 C 6,7 C 82 % 1016,0 hPa 0,0 l/m 0 min 0 min 68 W/m 22,5 km/h (4 Bft) 95,74 %
22.10.2021 10:38 8,1 C 8,3 C 7,3 C 83 % 1015,8 hPa 0,0 l/m 2 min 0 min 193 W/m 22,5 km/h (4 Bft) 97,87 %
22.10.2021 10:40 8,3 C 8,3 C 7,3 C 83 % 1016,0 hPa 0,0 l/m 2 min 0 min 309 W/m 29,0 km/h (5 Bft) 97,87 %
22.10.2021 10:42 8,4 C 8,9 C 7,3 C 83 % 1015,9 hPa 0,0 l/m 2 min 0 min 335 W/m 19,3 km/h (3 Bft) 95,74 %
22.10.2021 10:44 8,5 C 8,9 C 7,3 C 83 % 1016,0 hPa 0,0 l/m 2 min 0 min 172 W/m 16,1 km/h (3 Bft) 97,87 %
22.10.2021 10:46 8,5 C 8,9 C 7,3 C 82 % 1015,9 hPa 0,0 l/m 0 min 0 min 130 W/m 22,5 km/h (4 Bft) 95,65 %
22.10.2021 10:48 8,6 C 8,9 C 7,3 C 82 % 1016,0 hPa 0,0 l/m 0 min 0 min 150 W/m 22,5 km/h (4 Bft) 95,74 %
22.10.2021 10:50 8,6 C 8,9 C 7,8 C 82 % 1015,9 hPa 0,0 l/m 0 min 0 min 157 W/m 25,7 km/h (4 Bft) 95,74 %
22.10.2021 10:52 8,6 C 8,9 C 7,8 C 82 % 1015,9 hPa 0,0 l/m 0 min 0 min 164 W/m 22,5 km/h (4 Bft) 95,74 %
22.10.2021 10:54 8,6 C 8,9 C 7,8 C 82 % 1015,9 hPa 0,0 l/m 0 min 0 min 147 W/m 22,5 km/h (4 Bft) 95,74 %
22.10.2021 10:56 8,6 C 8,3 C 7,8 C 82 % 1015,9 hPa 0,0 l/m 0 min 0 min 129 W/m 22,5 km/h (4 Bft) 95,74 %
22.10.2021 10:58 8,6 C 8,3 C 7,8 C 82 % 1015,8 hPa 0,0 l/m 0 min 0 min 135 W/m 45,1 km/h (6 Bft) 95,65 %
22.10.2021 11:00 8,6 C 8,3 C 7,8 C 82 % 1015,9 hPa 0,0 l/m 0 min 0 min 139 W/m 25,7 km/h (4 Bft) 93,62 %
22.10.2021 11:02 8,7 C 8,3 C 7,3 C 82 % 1015,8 hPa 0,0 l/m 0 min 0 min 137 W/m 16,1 km/h (3 Bft) 93,62 %
22.10.2021 11:04 8,7 C 8,3 C 7,8 C 82 % 1015,9 hPa 0,0 l/m 0 min 0 min 133 W/m 29,0 km/h (5 Bft) 95,74 %
22.10.2021 11:06 8,7 C 8,3 C 7,3 C 82 % 1015,9 hPa 0,0 l/m 0 min 0 min 133 W/m 22,5 km/h (4 Bft) 95,74 %
22.10.2021 11:08 8,7 C 8,3 C 7,3 C 82 % 1015,9 hPa 0,0 l/m 0 min 0 min 149 W/m 22,5 km/h (4 Bft) 95,74 %
22.10.2021 11:10 8,7 C 8,3 C 7,8 C 82 % 1015,8 hPa 0,0 l/m 0 min 0 min 138 W/m 25,7 km/h (4 Bft) 95,65 %
22.10.2021 11:12 8,8 C 8,3 C 7,8 C 81 % 1015,9 hPa 0,0 l/m 0 min 0 min 137 W/m 29,0 km/h (5 Bft) 93,62 %
22.10.2021 11:14 8,8 C 8,9 C 7,8 C 81 % 1015,9 hPa 0,0 l/m 0 min 0 min 145 W/m 22,5 km/h (4 Bft) 95,74 %
22.10.2021 11:16 8,8 C 10,0 C 7,8 C 82 % 1015,9 hPa 0,0 l/m 0 min 0 min 145 W/m 35,4 km/h (5 Bft) 95,74 %
22.10.2021 11:18 8,8 C 12,8 C 7,8 C 82 % 1016,0 hPa 0,0 l/m 2 min 0 min 216 W/m 22,5 km/h (4 Bft) 97,87 %
22.10.2021 11:20 9,0 C 14,4 C 7,8 C 82 % 1015,9 hPa 0,0 l/m 0 min 0 min 186 W/m 12,9 km/h (3 Bft) 97,87 %
22.10.2021 11:22 9,1 C 16,1 C 8,4 C 82 % 1016,0 hPa 0,0 l/m 0 min 0 min 146 W/m 12,9 km/h (3 Bft) 100,00 %
22.10.2021 11:24 9,2 C 16,1 C 8,4 C 82 % 1015,9 hPa 0,0 l/m 0 min 0 min 94 W/m 19,3 km/h (3 Bft) 100,00 %
22.10.2021 11:26 9,4 C 16,7 C 8,9 C 81 % 1016,0 hPa 0,0 l/m 0 min 0 min 156 W/m 16,1 km/h (3 Bft) 100,00 %
22.10.2021 11:28 9,5 C 15,0 C 8,9 C 81 % 1016,0 hPa 0,0 l/m 2 min 0 min 222 W/m 35,4 km/h (5 Bft) 100,00 %
22.10.2021 11:30 9,6 C 13,3 C 8,9 C 80 % 1016,0 hPa 0,0 l/m 2 min 0 min 310 W/m 22,5 km/h (4 Bft) 100,00 %
22.10.2021 11:32 9,5 C 11,1 C 8,4 C 80 % 1016,0 hPa 0,0 l/m 0 min 0 min 154 W/m 29,0 km/h (5 Bft) 97,87 %
22.10.2021 11:34 9,5 C 10,0 C 8,4 C 80 % 1016,0 hPa 0,0 l/m 0 min 0 min 127 W/m 29,0 km/h (5 Bft) 100,00 %
22.10.2021 11:36 9,5 C 10,6 C 8,4 C 80 % 1016,1 hPa 0,0 l/m 0 min 0 min 129 W/m 16,1 km/h (3 Bft) 100,00 %
22.10.2021 11:38 9,5 C 12,2 C 9,5 C 81 % 1016,0 hPa 0,0 l/m 0 min 0 min 152 W/m 22,5 km/h (4 Bft) 100,00 %
22.10.2021 11:40 9,5 C 13,9 C 10,6 C 81 % 1016,1 hPa 0,0 l/m 2 min 0 min 296 W/m 19,3 km/h (3 Bft) 100,00 %
22.10.2021 11:42 9,6 C 15,0 C 11,1 C 80 % 1016,0 hPa 0,0 l/m 2 min 0 min 391 W/m 16,1 km/h (3 Bft) 100,00 %
22.10.2021 11:44 9,7 C 14,4 C 11,7 C 80 % 1016,0 hPa 0,0 l/m 2 min 0 min 241 W/m 38,6 km/h (5 Bft) 100,00 %
22.10.2021 11:46 9,9 C 14,4 C 12,3 C 80 % 1016,1 hPa 0,0 l/m 2 min 0 min 417 W/m 19,3 km/h (3 Bft) 100,00 %
22.10.2021 11:48 9,9 C 13,3 C 12,3 C 79 % 1016,1 hPa 0,0 l/m 2 min 0 min 417 W/m 32,2 km/h (5 Bft) 100,00 %
22.10.2021 11:50 9,9 C 13,3 C 12,3 C 79 % 1016,0 hPa 0,0 l/m 0 min 0 min 161 W/m 29,0 km/h (5 Bft) 97,87 %
22.10.2021 11:52 10,0 C 13,9 C 12,3 C 79 % 1015,9 hPa 0,0 l/m 0 min 0 min 141 W/m 22,5 km/h (4 Bft) 100,00 %
22.10.2021 11:54 10,0 C 13,3 C 11,7 C 79 % 1016,1 hPa 0,0 l/m 0 min 0 min 153 W/m 29,0 km/h (5 Bft) 97,87 %
22.10.2021 11:56 10,0 C 13,3 C 11,1 C 79 % 1016,0 hPa 0,0 l/m 2 min 0 min 354 W/m 25,7 km/h (4 Bft) 100,00 %
22.10.2021 11:58 10,1 C 12,8 C 11,1 C 79 % 1015,9 hPa 0,0 l/m 0 min 0 min 209 W/m 16,1 km/h (3 Bft) 100,00 %
22.10.2021 12:00 10,1 C 12,2 C 10,6 C 79 % 1016,0 hPa 0,0 l/m 0 min 0 min 118 W/m 16,1 km/h (3 Bft) 100,00 %
22.10.2021 12:02 10,2 C 11,7 C 10,0 C 79 % 1015,9 hPa 0,0 l/m 0 min 0 min 124 W/m 32,2 km/h (5 Bft) 100,00 %
22.10.2021 12:04 10,3 C 11,7 C 10,0 C 79 % 1015,9 hPa 0,0 l/m 0 min 0 min 123 W/m 41,8 km/h (6 Bft) 100,00 %
22.10.2021 12:08 10,3 C 10,6 C 9,5 C 78 % 1015,9 hPa 0,0 l/m 0 min 0 min 110 W/m 29,0 km/h (5 Bft) 100,00 %
22.10.2021 12:10 10,3 C 11,1 C 10,0 C 79 % 1016,1 hPa 0,2 l/m 0 min 0 min 120 W/m 19,3 km/h (3 Bft) 97,87 %
22.10.2021 12:12 10,4 C 11,1 C 9,5 C 79 % 1016,0 hPa 0,0 l/m 0 min 0 min 76 W/m 19,3 km/h (3 Bft) 100,00 %
22.10.2021 12:14 10,5 C 11,1 C 9,5 C 79 % 1016,0 hPa 0,0 l/m 0 min 0 min 75 W/m 19,3 km/h (3 Bft) 100,00 %
22.10.2021 12:16 10,5 C 10,6 C 9,5 C 79 % 1016,1 hPa 0,0 l/m 0 min 0 min 81 W/m 22,5 km/h (4 Bft) 100,00 %
22.10.2021 12:18 10,6 C 10,6 C 9,5 C 78 % 1016,0 hPa 0,0 l/m 0 min 0 min 116 W/m 19,3 km/h (3 Bft) 100,00 %
22.10.2021 12:20 10,7 C 11,1 C 9,5 C 78 % 1016,1 hPa 0,0 l/m 0 min 0 min 130 W/m 25,7 km/h (4 Bft) 100,00 %
22.10.2021 12:22 10,8 C 11,1 C 9,5 C 78 % 1016,0 hPa 0,0 l/m 0 min 0 min 87 W/m 32,2 km/h (5 Bft) 100,00 %
22.10.2021 12:24 10,9 C 11,1 C 9,5 C 78 % 1015,9 hPa 0,0 l/m 0 min 0 min 62 W/m 19,3 km/h (3 Bft) 100,00 %
22.10.2021 12:26 11,0 C 11,1 C 9,5 C 77 % 1016,0 hPa 0,0 l/m 0 min 0 min 62 W/m 22,5 km/h (4 Bft) 97,87 %
22.10.2021 12:28 11,1 C 11,1 C 9,5 C 77 % 1016,0 hPa 0,0 l/m 0 min 0 min 64 W/m 22,5 km/h (4 Bft) 97,87 %
22.10.2021 12:30 11,1 C 11,1 C 9,5 C 76 % 1016,1 hPa 0,0 l/m 0 min 0 min 80 W/m 22,5 km/h (4 Bft) 97,87 %
22.10.2021 12:32 11,2 C 11,1 C 9,5 C 77 % 1016,1 hPa 0,0 l/m 0 min 0 min 117 W/m 16,1 km/h (3 Bft) 100,00 %
22.10.2021 12:34 11,3 C 11,7 C 9,5 C 76 % 1016,1 hPa 0,0 l/m 0 min 0 min 167 W/m 16,1 km/h (3 Bft) 93,62 %
22.10.2021 12:36 11,4 C 11,7 C 10,0 C 76 % 1016,2 hPa 0,0 l/m 0 min 0 min 221 W/m 25,7 km/h (4 Bft) 97,87 %
22.10.2021 12:38 11,4 C 11,7 C 10,0 C 76 % 1016,3 hPa 0,0 l/m 2 min 0 min 272 W/m 22,5 km/h (4 Bft) 95,74 %
22.10.2021 12:40 11,5 C 12,2 C 10,0 C 76 % 1016,3 hPa 0,0 l/m 2 min 0 min 256 W/m 22,5 km/h (4 Bft) 97,87 %
22.10.2021 12:42 11,5 C 11,7 C 10,0 C 75 % 1016,3 hPa 0,0 l/m 2 min 0 min 262 W/m 25,7 km/h (4 Bft) 97,87 %
22.10.2021 12:44 11,5 C 11,7 C 10,0 C 74 % 1016,2 hPa 0,0 l/m 2 min 0 min 259 W/m 22,5 km/h (4 Bft) 95,65 %
22.10.2021 12:46 11,5 C 11,7 C 10,0 C 75 % 1016,2 hPa 0,0 l/m 2 min 0 min 234 W/m 25,7 km/h (4 Bft) 97,87 %
22.10.2021 12:48 11,5 C 11,7 C 10,0 C 75 % 1016,2 hPa 0,0 l/m 2 min 0 min 236 W/m 25,7 km/h (4 Bft) 95,74 %
22.10.2021 12:50 11,5 C 11,7 C 10,0 C 74 % 1016,2 hPa 0,0 l/m 2 min 0 min 235 W/m 19,3 km/h (3 Bft) 95,74 %
22.10.2021 12:52 11,4 C 11,7 C 9,5 C 74 % 1016,1 hPa 0,0 l/m 0 min 0 min 174 W/m 22,5 km/h (4 Bft) 93,62 %
22.10.2021 12:54 11,3 C 11,1 C 9,5 C 74 % 1016,2 hPa 0,0 l/m 0 min 0 min 115 W/m 35,4 km/h (5 Bft) 95,74 %
22.10.2021 12:56 11,3 C 11,7 C 9,5 C 74 % 1016,1 hPa 0,0 l/m 0 min 0 min 175 W/m 22,5 km/h (4 Bft) 95,65 %
22.10.2021 12:58 11,3 C 11,7 C 9,5 C 75 % 1016,2 hPa 0,0 l/m 0 min 0 min 175 W/m 22,5 km/h (4 Bft) 95,74 %
22.10.2021 13:00 11,3 C 11,7 C 9,5 C 75 % 1016,2 hPa 0,0 l/m 0 min 0 min 154 W/m 29,0 km/h (5 Bft) 95,74 %
22.10.2021 13:02 11,3 C 11,7 C 9,5 C 75 % 1016,1 hPa 0,0 l/m 0 min 0 min 107 W/m 29,0 km/h (5 Bft) 95,74 %
22.10.2021 13:04 11,3 C 11,1 C 9,5 C 75 % 1016,0 hPa 0,0 l/m 0 min 0 min 80 W/m 25,7 km/h (4 Bft) 95,74 %
22.10.2021 13:06 11,3 C 11,1 C 9,5 C 75 % 1016,1 hPa 0,0 l/m 0 min 0 min 76 W/m 25,7 km/h (4 Bft) 95,74 %
22.10.2021 13:08 11,3 C 11,1 C 8,9 C 75 % 1016,0 hPa 0,0 l/m 0 min 0 min 67 W/m 32,2 km/h (5 Bft) 93,48 %
22.10.2021 13:10 11,3 C 11,1 C 8,9 C 75 % 1016,1 hPa 0,0 l/m 0 min 0 min 74 W/m 29,0 km/h (5 Bft) 95,74 %
22.10.2021 13:12 11,3 C 11,1 C 8,9 C 75 % 1016,1 hPa 0,0 l/m 0 min 0 min 77 W/m 45,1 km/h (6 Bft) 95,74 %
22.10.2021 13:14 11,3 C 11,1 C 9,5 C 76 % 1016,3 hPa 0,0 l/m 0 min 0 min 116 W/m 22,5 km/h (4 Bft) 95,74 %
22.10.2021 13:16 11,5 C 11,7 C 9,5 C 76 % 1016,3 hPa 0,0 l/m 0 min 0 min 114 W/m 25,7 km/h (4 Bft) 95,74 %
22.10.2021 13:18 11,5 C 11,7 C 9,5 C 75 % 1016,3 hPa 0,0 l/m 0 min 0 min 146 W/m 29,0 km/h (5 Bft) 97,87 %
22.10.2021 13:20 11,5 C 11,7 C 9,5 C 75 % 1016,3 hPa 0,0 l/m 0 min 0 min 185 W/m 22,5 km/h (4 Bft) 95,65 %
22.10.2021 13:22 11,6 C 11,7 C 9,5 C 75 % 1016,4 hPa 0,0 l/m 0 min 0 min 138 W/m 25,7 km/h (4 Bft) 100,00 %
22.10.2021 13:24 11,6 C 11,7 C 9,5 C 75 % 1016,4 hPa 0,0 l/m 0 min 0 min 115 W/m 25,7 km/h (4 Bft) 95,74 %
22.10.2021 13:26 11,5 C 11,7 C 9,5 C 75 % 1016,5 hPa 0,0 l/m 0 min 0 min 181 W/m 32,2 km/h (5 Bft) 100,00 %
22.10.2021 13:28 11,5 C 11,7 C 9,5 C 75 % 1016,3 hPa 0,0 l/m 0 min 0 min 215 W/m 19,3 km/h (3 Bft) 97,87 %
22.10.2021 13:30 11,5 C 11,7 C 9,5 C 75 % 1016,4 hPa 0,0 l/m 2 min 0 min 283 W/m 25,7 km/h (4 Bft) 100,00 %
22.10.2021 13:32 11,5 C 11,7 C 9,5 C 75 % 1016,4 hPa 0,0 l/m 2 min 0 min 264 W/m 19,3 km/h (3 Bft) 100,00 %
22.10.2021 13:34 11,5 C 11,7 C 9,5 C 75 % 1016,4 hPa 0,0 l/m 2 min 0 min 267 W/m 19,3 km/h (3 Bft) 100,00 %
22.10.2021 13:36 11,6 C 11,7 C 9,5 C 75 % 1016,4 hPa 0,0 l/m 2 min 0 min 249 W/m 25,7 km/h (4 Bft) 97,87 %
22.10.2021 13:38 11,6 C 11,7 C 9,5 C 75 % 1016,4 hPa 0,0 l/m 0 min 0 min 222 W/m 19,3 km/h (3 Bft) 100,00 %
22.10.2021 13:40 11,6 C 11,7 C 9,5 C 75 % 1016,4 hPa 0,0 l/m 0 min 0 min 206 W/m 16,1 km/h (3 Bft) 100,00 %
22.10.2021 13:42 11,6 C 11,7 C 9,5 C 75 % 1016,5 hPa 0,0 l/m 0 min 0 min 177 W/m 25,7 km/h (4 Bft) 97,87 %
22.10.2021 13:44 11,6 C 11,7 C 9,5 C 75 % 1016,5 hPa 0,0 l/m 0 min 0 min 139 W/m 22,5 km/h (4 Bft) 100,00 %
22.10.2021 13:46 11,5 C 11,1 C 9,5 C 75 % 1016,5 hPa 0,0 l/m 0 min 0 min 131 W/m 25,7 km/h (4 Bft) 97,87 %
22.10.2021 13:48 11,5 C 11,1 C 9,5 C 75 % 1016,5 hPa 0,0 l/m 0 min 0 min 109 W/m 16,1 km/h (3 Bft) 100,00 %
22.10.2021 13:50 11,4 C 11,1 C 9,5 C 75 % 1016,4 hPa 0,0 l/m 0 min 0 min 107 W/m 29,0 km/h (5 Bft) 100,00 %
22.10.2021 13:52 11,4 C 11,1 C 9,5 C 75 % 1016,5 hPa 0,0 l/m 0 min 0 min 84 W/m 19,3 km/h (3 Bft) 100,00 %
22.10.2021 13:54 11,4 C 11,1 C 8,9 C 76 % 1016,5 hPa 0,0 l/m 0 min 0 min 79 W/m 19,3 km/h (3 Bft) 97,87 %
22.10.2021 13:56 11,4 C 11,1 C 8,9 C 76 % 1016,5 hPa 0,0 l/m 0 min 0 min 110 W/m 16,1 km/h (3 Bft) 97,83 %
22.10.2021 13:58 11,3 C 11,1 C 8,9 C 76 % 1016,5 hPa 0,0 l/m 0 min 0 min 118 W/m 19,3 km/h (3 Bft) 95,74 %
22.10.2021 14:00 11,4 C 11,1 C 9,5 C 76 % 1016,5 hPa 0,0 l/m 0 min 0 min 141 W/m 16,1 km/h (3 Bft) 97,87 %
22.10.2021 14:02 11,4 C 11,1 C 9,5 C 76 % 1016,6 hPa 0,0 l/m 0 min 0 min 156 W/m 25,7 km/h (4 Bft) 97,87 %
22.10.2021 14:04 11,4 C 11,1 C 9,5 C 75 % 1016,5 hPa 0,0 l/m 0 min 0 min 177 W/m 19,3 km/h (3 Bft) 95,74 %
22.10.2021 14:06 11,4 C 11,7 C 9,5 C 75 % 1016,5 hPa 0,0 l/m 0 min 0 min 219 W/m 19,3 km/h (3 Bft) 97,62 %
22.10.2021 14:08 11,5 C 12,2 C 9,5 C 75 % 1016,5 hPa 0,0 l/m 2 min 0 min 263 W/m 19,3 km/h (3 Bft) 97,87 %
22.10.2021 14:10 11,6 C 11,7 C 9,5 C 74 % 1016,5 hPa 0,0 l/m 0 min 0 min 205 W/m 29,0 km/h (5 Bft) 96,55 %
22.10.2021 14:12 11,6 C 11,7 C 9,5 C 74 % 1016,5 hPa 0,0 l/m 0 min 0 min 186 W/m 25,7 km/h (4 Bft) 95,74 %
22.10.2021 14:14 11,6 C 11,7 C 9,5 C 74 % 1016,5 hPa 0,0 l/m 0 min 0 min 194 W/m 25,7 km/h (4 Bft) 97,14 %
22.10.2021 14:16 11,6 C 11,7 C 9,5 C 74 % 1016,5 hPa 0,0 l/m 0 min 0 min 192 W/m 22,5 km/h (4 Bft) 97,87 %
22.10.2021 14:18 11,6 C 11,7 C 9,5 C 74 % 1016,5 hPa 0,0 l/m 0 min 0 min 194 W/m 25,7 km/h (4 Bft) 97,87 %
22.10.2021 14:20 11,6 C 11,7 C 9,5 C 74 % 1016,6 hPa 0,0 l/m 0 min 0 min 190 W/m 22,5 km/h (4 Bft) 96,61 %
22.10.2021 14:22 11,6 C 11,7 C 9,5 C 74 % 1016,6 hPa 0,0 l/m 0 min 0 min 192 W/m 25,7 km/h (4 Bft) 97,83 %
22.10.2021 14:24 11,6 C 11,7 C 9,5 C 74 % 1016,6 hPa 0,0 l/m 0 min 0 min 154 W/m 35,4 km/h (5 Bft) 97,22 %
22.10.2021 14:26 11,5 C 11,1 C 9,5 C 74 % 1016,6 hPa 0,0 l/m 0 min 0 min 151 W/m 22,5 km/h (4 Bft) 98,28 %
22.10.2021 14:28 11,5 C 11,1 C 9,5 C 74 % 1016,6 hPa 0,0 l/m 0 min 0 min 134 W/m 19,3 km/h (3 Bft) 97,87 %
22.10.2021 14:30 11,5 C 11,1 C 9,5 C 74 % 1016,7 hPa 0,0 l/m 0 min 0 min 173 W/m 35,4 km/h (5 Bft) 97,87 %
22.10.2021 14:32 11,5 C 11,7 C 9,5 C 75 % 1016,7 hPa 0,0 l/m 2 min 0 min 240 W/m 32,2 km/h (5 Bft) 95,74 %
22.10.2021 14:34 11,5 C 11,1 C 9,5 C 75 % 1016,7 hPa 0,0 l/m 0 min 0 min 197 W/m 22,5 km/h (4 Bft) 97,14 %
22.10.2021 14:36 11,5 C 11,1 C 9,5 C 75 % 1016,7 hPa 0,0 l/m 0 min 0 min 127 W/m 19,3 km/h (3 Bft) 98,28 %
22.10.2021 14:38 11,5 C 11,1 C 9,5 C 75 % 1016,7 hPa 0,0 l/m 0 min 0 min 150 W/m 22,5 km/h (4 Bft) 97,87 %
22.10.2021 14:40 11,5 C 11,1 C 9,5 C 75 % 1016,7 hPa 0,0 l/m 0 min 0 min 178 W/m 25,7 km/h (4 Bft) 97,87 %
22.10.2021 14:42 11,5 C 11,1 C 9,5 C 75 % 1016,7 hPa 0,0 l/m 0 min 0 min 158 W/m 22,5 km/h (4 Bft) 97,14 %
22.10.2021 14:44 11,5 C 11,1 C 9,5 C 76 % 1016,8 hPa 0,0 l/m 0 min 0 min 130 W/m 22,5 km/h (4 Bft) 97,87 %
22.10.2021 14:46 11,4 C 11,1 C 8,9 C 76 % 1016,8 hPa 0,0 l/m 0 min 0 min 134 W/m 22,5 km/h (4 Bft) 97,87 %
22.10.2021 14:48 11,4 C 11,1 C 9,5 C 76 % 1016,8 hPa 0,0 l/m 0 min 0 min 171 W/m 22,5 km/h (4 Bft) 97,87 %
22.10.2021 14:50 11,4 C 11,7 C 9,5 C 76 % 1016,7 hPa 0,0 l/m 2 min 0 min 268 W/m 19,3 km/h (3 Bft) 100,00 %
22.10.2021 14:52 11,5 C 11,7 C 9,5 C 76 % 1016,8 hPa 0,0 l/m 0 min 0 min 139 W/m 25,7 km/h (4 Bft) 100,00 %
22.10.2021 14:54 11,5 C 11,7 C 9,5 C 76 % 1016,8 hPa 0,0 l/m 0 min 0 min 133 W/m 22,5 km/h (4 Bft) 97,87 %
22.10.2021 14:56 11,6 C 11,7 C 9,5 C 76 % 1016,8 hPa 0,0 l/m 2 min 0 min 292 W/m 25,7 km/h (4 Bft) 97,87 %
22.10.2021 14:58 11,8 C 12,2 C 10,0 C 76 % 1016,8 hPa 0,0 l/m 2 min 0 min 533 W/m 19,3 km/h (3 Bft) 97,87 %
22.10.2021 15:00 11,9 C 12,8 C 10,0 C 76 % 1016,8 hPa 0,0 l/m 2 min 0 min 329 W/m 12,9 km/h (3 Bft) 97,87 %
22.10.2021 15:02 12,0 C 12,2 C 10,0 C 75 % 1016,8 hPa 0,0 l/m 2 min 0 min 219 W/m 22,5 km/h (4 Bft) 97,87 %
22.10.2021 15:04 12,1 C 12,2 C 10,0 C 75 % 1016,8 hPa 0,0 l/m 0 min 0 min 141 W/m 25,7 km/h (4 Bft) 100,00 %
22.10.2021 15:06 12,0 C 12,2 C 10,0 C 75 % 1016,8 hPa 0,0 l/m 0 min 0 min 141 W/m 22,5 km/h (4 Bft) 95,74 %
22.10.2021 15:08 12,0 C 12,2 C 10,0 C 75 % 1016,8 hPa 0,0 l/m 0 min 0 min 179 W/m 29,0 km/h (5 Bft) 95,74 %
22.10.2021 15:10 12,0 C 12,2 C 10,0 C 75 % 1016,8 hPa 0,0 l/m 2 min 0 min 236 W/m 29,0 km/h (5 Bft) 95,74 %
22.10.2021 15:12 12,1 C 12,2 C 10,0 C 75 % 1016,8 hPa 0,0 l/m 2 min 0 min 245 W/m 25,7 km/h (4 Bft) 93,88 %
22.10.2021 15:14 12,1 C 12,2 C 10,0 C 75 % 1016,9 hPa 0,0 l/m 0 min 0 min 185 W/m 22,5 km/h (4 Bft) 95,83 %
22.10.2021 15:16 12,1 C 12,2 C 10,0 C 75 % 1016,9 hPa 0,0 l/m 2 min 0 min 203 W/m 19,3 km/h (3 Bft) 93,62 %
22.10.2021 15:18 12,1 C 12,2 C 10,0 C 75 % 1016,9 hPa 0,0 l/m 0 min 0 min 168 W/m 16,1 km/h (3 Bft) 95,35 %
22.10.2021 15:20 12,1 C 12,2 C 10,0 C 75 % 1016,9 hPa 0,0 l/m 0 min 0 min 151 W/m 19,3 km/h (3 Bft) 96,00 %
22.10.2021 15:22 12,1 C 11,7 C 10,0 C 75 % 1016,9 hPa 0,0 l/m 0 min 0 min 119 W/m 16,1 km/h (3 Bft) 95,74 %
22.10.2021 15:24 12,0 C 11,7 C 9,5 C 75 % 1017,0 hPa 0,0 l/m 0 min 0 min 92 W/m 19,3 km/h (3 Bft) 95,74 %
22.10.2021 15:26 12,0 C 11,7 C 9,5 C 75 % 1017,0 hPa 0,0 l/m 0 min 0 min 89 W/m 19,3 km/h (3 Bft) 95,74 %
22.10.2021 15:28 12,0 C 11,7 C 9,5 C 75 % 1017,0 hPa 0,0 l/m 0 min 0 min 104 W/m 9,7 km/h (2 Bft) 93,62 %
22.10.2021 15:30 11,9 C 11,7 C 9,5 C 75 % 1017,0 hPa 0,0 l/m 0 min 0 min 132 W/m 25,7 km/h (4 Bft) 95,65 %
22.10.2021 15:32 11,9 C 11,7 C 9,5 C 75 % 1016,9 hPa 0,0 l/m 0 min 0 min 143 W/m 25,7 km/h (4 Bft) 98,15 %
22.10.2021 15:34 11,9 C 12,2 C 9,5 C 76 % 1016,9 hPa 0,0 l/m 2 min 0 min 210 W/m 25,7 km/h (4 Bft) 97,83 %
22.10.2021 15:36 11,9 C 12,2 C 9,5 C 76 % 1017,0 hPa 0,0 l/m 2 min 0 min 238 W/m 22,5 km/h (4 Bft) 97,87 %
22.10.2021 15:38 11,9 C 12,2 C 9,5 C 75 % 1017,0 hPa 0,0 l/m 0 min 0 min 161 W/m 25,7 km/h (4 Bft) 95,74 %
22.10.2021 15:40 11,9 C 11,7 C 9,5 C 76 % 1017,0 hPa 0,0 l/m 0 min 0 min 120 W/m 16,1 km/h (3 Bft) 97,87 %
22.10.2021 15:42 11,9 C 11,7 C 9,5 C 76 % 1017,0 hPa 0,0 l/m 0 min 0 min 117 W/m 19,3 km/h (3 Bft) 95,74 %
22.10.2021 15:44 11,9 C 11,7 C 9,5 C 76 % 1017,0 hPa 0,0 l/m 0 min 0 min 132 W/m 35,4 km/h (5 Bft) 97,87 %
22.10.2021 15:46 11,8 C 11,7 C 9,5 C 76 % 1017,0 hPa 0,0 l/m 0 min 0 min 97 W/m 19,3 km/h (3 Bft) 97,83 %
22.10.2021 15:48 11,8 C 11,7 C 9,5 C 76 % 1016,9 hPa 0,0 l/m 2 min 0 min 197 W/m 22,5 km/h (4 Bft) 100,00 %
22.10.2021 15:50 11,9 C 12,2 C 9,5 C 76 % 1016,9 hPa 0,0 l/m 2 min 0 min 441 W/m 19,3 km/h (3 Bft) 100,00 %
22.10.2021 15:52 12,0 C 12,2 C 9,5 C 77 % 1016,9 hPa 0,0 l/m 2 min 0 min 347 W/m 16,1 km/h (3 Bft) 100,00 %
22.10.2021 15:54 12,0 C 12,2 C 9,5 C 76 % 1016,9 hPa 0,0 l/m 2 min 0 min 243 W/m 19,3 km/h (3 Bft) 100,00 %
22.10.2021 15:56 12,1 C 12,8 C 10,0 C 76 % 1016,9 hPa 0,0 l/m 2 min 0 min 415 W/m 22,5 km/h (4 Bft) 97,87 %
22.10.2021 15:58 12,2 C 12,2 C 10,0 C 76 % 1016,9 hPa 0,0 l/m 2 min 0 min 243 W/m 22,5 km/h (4 Bft) 97,83 %
22.10.2021 16:00 12,2 C 12,2 C 10,0 C 76 % 1017,0 hPa 0,0 l/m 2 min 0 min 249 W/m 16,1 km/h (3 Bft) 100,00 %
22.10.2021 16:02 12,1 C 12,2 C 9,5 C 76 % 1017,0 hPa 0,0 l/m 2 min 0 min 169 W/m 22,5 km/h (4 Bft) 95,74 %
22.10.2021 16:04 12,1 C 12,2 C 9,5 C 76 % 1017,2 hPa 0,0 l/m 2 min 0 min 162 W/m 25,7 km/h (4 Bft) 100,00 %
22.10.2021 16:06 12,1 C 12,2 C 9,5 C 76 % 1017,0 hPa 0,0 l/m 2 min 0 min 174 W/m 32,2 km/h (5 Bft) 100,00 %
22.10.2021 16:08 12,1 C 12,8 C 9,5 C 76 % 1017,0 hPa 0,0 l/m 2 min 0 min 323 W/m 16,1 km/h (3 Bft) 100,00 %
22.10.2021 16:10 12,1 C 13,3 C 10,0 C 76 % 1017,0 hPa 0,0 l/m 2 min 0 min 385 W/m 22,5 km/h (4 Bft) 100,00 %
22.10.2021 16:12 12,2 C 13,9 C 10,0 C 77 % 1017,0 hPa 0,0 l/m 2 min 0 min 385 W/m 19,3 km/h (3 Bft) 100,00 %
22.10.2021 16:14 12,3 C 13,3 C 10,0 C 76 % 1017,0 hPa 0,0 l/m 2 min 0 min 271 W/m 22,5 km/h (4 Bft) 100,00 %
22.10.2021 16:16 12,3 C 13,9 C 10,0 C 76 % 1017,1 hPa 0,0 l/m 2 min 0 min 219 W/m 19,3 km/h (3 Bft) 100,00 %
22.10.2021 16:18 12,3 C 13,3 C 10,0 C 76 % 1017,1 hPa 0,0 l/m 2 min 0 min 306 W/m 16,1 km/h (3 Bft) 100,00 %
22.10.2021 16:20 12,4 C 12,8 C 10,0 C 76 % 1017,0 hPa 0,0 l/m 2 min 0 min 245 W/m 12,9 km/h (3 Bft) 100,00 %
22.10.2021 16:22 12,3 C 12,2 C 10,0 C 76 % 1017,1 hPa 0,0 l/m 2 min 0 min 191 W/m 22,5 km/h (4 Bft) 97,83 %
22.10.2021 16:24 12,3 C 12,2 C 9,5 C 76 % 1017,2 hPa 0,0 l/m 2 min 0 min 141 W/m 25,7 km/h (4 Bft) 100,00 %
22.10.2021 16:26 12,2 C 12,2 C 9,5 C 76 % 1017,1 hPa 0,0 l/m 2 min 0 min 179 W/m 19,3 km/h (3 Bft) 100,00 %
22.10.2021 16:28 12,2 C 12,2 C 9,5 C 76 % 1017,2 hPa 0,0 l/m 2 min 0 min 137 W/m 19,3 km/h (3 Bft) 100,00 %
22.10.2021 16:30 12,1 C 11,7 C 9,5 C 76 % 1017,2 hPa 0,0 l/m 0 min 0 min 79 W/m 25,7 km/h (4 Bft) 100,00 %
22.10.2021 16:32 12,1 C 11,7 C 9,5 C 77 % 1017,2 hPa 0,0 l/m 0 min 0 min 92 W/m 32,2 km/h (5 Bft) 100,00 %
22.10.2021 16:34 12,0 C 11,7 C 9,5 C 76 % 1017,2 hPa 0,0 l/m 0 min 0 min 68 W/m 32,2 km/h (5 Bft) 100,00 %
22.10.2021 16:36 12,0 C 11,7 C 9,5 C 77 % 1017,3 hPa 0,0 l/m 0 min 0 min 74 W/m 38,6 km/h (5 Bft) 100,00 %
22.10.2021 16:38 11,9 C 11,7 C 9,5 C 77 % 1017,3 hPa 0,0 l/m 0 min 0 min 85 W/m 19,3 km/h (3 Bft) 97,87 %
22.10.2021 16:40 11,9 C 11,7 C 9,5 C 77 % 1017,3 hPa 0,0 l/m 0 min 0 min 111 W/m 22,5 km/h (4 Bft) 100,00 %
22.10.2021 16:42 11,9 C 11,7 C 9,5 C 77 % 1017,4 hPa 0,0 l/m 2 min 2 min 125 W/m 16,1 km/h (3 Bft) 100,00 %
22.10.2021 16:44 11,9 C 11,7 C 9,5 C 78 % 1017,3 hPa 0,0 l/m 2 min 0 min 129 W/m 19,3 km/h (3 Bft) 100,00 %
22.10.2021 16:46 11,9 C 11,7 C 9,5 C 79 % 1017,4 hPa 0,0 l/m 0 min 0 min 81 W/m 25,7 km/h (4 Bft) 100,00 %
22.10.2021 16:48 11,8 C 11,1 C 8,9 C 79 % 1017,4 hPa 0,0 l/m 0 min 0 min 80 W/m 19,3 km/h (3 Bft) 100,00 %
22.10.2021 16:50 11,8 C 11,1 C 8,9 C 80 % 1017,4 hPa 0,0 l/m 0 min 0 min 75 W/m 16,1 km/h (3 Bft) 95,74 %
22.10.2021 16:52 11,6 C 11,1 C 8,9 C 80 % 1017,5 hPa 0,0 l/m 0 min 0 min 75 W/m 16,1 km/h (3 Bft) 100,00 %
22.10.2021 16:54 11,6 C 11,1 C 8,9 C 80 % 1017,5 hPa 0,0 l/m 0 min 0 min 66 W/m 25,7 km/h (4 Bft) 100,00 %
22.10.2021 16:56 11,5 C 11,1 C 8,9 C 80 % 1017,5 hPa 0,0 l/m 0 min 0 min 62 W/m 29,0 km/h (5 Bft) 100,00 %
22.10.2021 16:58 11,4 C 11,1 C 8,9 C 80 % 1017,6 hPa 0,0 l/m 0 min 0 min 59 W/m 22,5 km/h (4 Bft) 100,00 %
22.10.2021 17:00 11,4 C 11,1 C 8,9 C 80 % 1017,5 hPa 0,0 l/m 0 min 0 min 61 W/m 25,7 km/h (4 Bft) 97,87 %
22.10.2021 17:02 11,3 C 10,6 C 8,9 C 80 % 1017,6 hPa 0,0 l/m 0 min 0 min 55 W/m 22,5 km/h (4 Bft) 97,87 %
22.10.2021 17:04 11,3 C 10,6 C 8,9 C 81 % 1017,7 hPa 0,0 l/m 0 min 0 min 48 W/m 22,5 km/h (4 Bft) 97,87 %
22.10.2021 17:06 11,3 C 10,6 C 8,9 C 81 % 1017,7 hPa 0,0 l/m 0 min 0 min 44 W/m 16,1 km/h (3 Bft) 95,74 %
22.10.2021 17:08 11,2 C 10,6 C 8,9 C 81 % 1017,8 hPa 0,0 l/m 0 min 0 min 42 W/m 16,1 km/h (3 Bft) 93,62 %
22.10.2021 17:10 11,2 C 10,6 C 8,9 C 81 % 1017,8 hPa 0,0 l/m 0 min 0 min 38 W/m 19,3 km/h (3 Bft) 95,65 %
22.10.2021 17:12 11,2 C 10,6 C 8,9 C 81 % 1017,7 hPa 0,0 l/m 0 min 0 min 33 W/m 19,3 km/h (3 Bft) 93,62 %
22.10.2021 17:14 11,2 C 10,6 C 8,9 C 81 % 1017,8 hPa 0,0 l/m 0 min 0 min 28 W/m 16,1 km/h (3 Bft) 95,74 %
22.10.2021 17:16 11,1 C 10,6 C 8,9 C 81 % 1017,8 hPa 0,0 l/m 0 min 0 min 27 W/m 19,3 km/h (3 Bft) 93,62 %
22.10.2021 17:18 11,1 C 10,6 C 8,9 C 81 % 1017,8 hPa 0,0 l/m 0 min 0 min 30 W/m 22,5 km/h (4 Bft) 97,87 %
22.10.2021 17:20 11,1 C 10,6 C 8,9 C 81 % 1017,9 hPa 0,0 l/m 0 min 0 min 30 W/m 22,5 km/h (4 Bft) 95,74 %
22.10.2021 17:22 11,1 C 10,6 C 8,9 C 82 % 1017,9 hPa 0,0 l/m 0 min 0 min 31 W/m 22,5 km/h (4 Bft) 93,48 %
22.10.2021 17:24 11,0 C 10,6 C 8,9 C 82 % 1017,9 hPa 0,0 l/m 0 min 0 min 28 W/m 19,3 km/h (3 Bft) 95,74 %
22.10.2021 17:26 11,0 C 10,6 C 8,9 C 82 % 1017,9 hPa 0,0 l/m 0 min 0 min 27 W/m 22,5 km/h (4 Bft) 93,62 %
22.10.2021 17:28 11,0 C 10,6 C 8,9 C 82 % 1017,9 hPa 0,0 l/m 0 min 0 min 24 W/m 19,3 km/h (3 Bft) 95,74 %
22.10.2021 17:30 11,0 C 10,6 C 8,9 C 82 % 1017,9 hPa 0,0 l/m 0 min 0 min 22 W/m 19,3 km/h (3 Bft) 95,74 %
22.10.2021 17:32 11,0 C 10,6 C 8,4 C 82 % 1017,8 hPa 0,0 l/m 0 min 0 min 21 W/m 25,7 km/h (4 Bft) 93,62 %
22.10.2021 17:34 11,0 C 10,6 C 8,4 C 82 % 1017,9 hPa 0,0 l/m 0 min 0 min 23 W/m 22,5 km/h (4 Bft) 95,65 %
22.10.2021 17:36 11,0 C 10,6 C 8,4 C 82 % 1017,9 hPa 0,0 l/m 0 min 0 min 24 W/m 35,4 km/h (5 Bft) 93,62 %
22.10.2021 17:38 11,0 C 10,6 C 8,4 C 82 % 1017,9 hPa 0,0 l/m 0 min 0 min 24 W/m 22,5 km/h (4 Bft) 93,62 %
22.10.2021 17:40 11,0 C 10,6 C 8,4 C 82 % 1018,0 hPa 0,0 l/m 0 min 0 min 22 W/m 19,3 km/h (3 Bft) 95,74 %
22.10.2021 17:42 10,9 C 10,6 C 8,4 C 82 % 1018,0 hPa 0,0 l/m 0 min 0 min 20 W/m 19,3 km/h (3 Bft) 95,74 %
22.10.2021 17:44 10,9 C 10,6 C 8,4 C 82 % 1018,0 hPa 0,0 l/m 0 min 0 min 18 W/m 19,3 km/h (3 Bft) 95,74 %
22.10.2021 17:46 10,9 C 10,6 C 8,4 C 82 % 1018,2 hPa 0,0 l/m 0 min 0 min 16 W/m 16,1 km/h (3 Bft) 95,65 %
22.10.2021 17:48 10,9 C 10,6 C 8,4 C 82 % 1018,2 hPa 0,0 l/m 0 min 0 min 16 W/m 19,3 km/h (3 Bft) 93,62 %
22.10.2021 17:50 10,9 C 10,0 C 8,4 C 83 % 1018,2 hPa 0,0 l/m 0 min 0 min 14 W/m 19,3 km/h (3 Bft) 95,74 %
22.10.2021 17:52 10,8 C 10,0 C 8,4 C 83 % 1018,2 hPa 0,0 l/m 0 min 0 min 11 W/m 19,3 km/h (3 Bft) 95,74 %
22.10.2021 17:54 10,8 C 10,0 C 8,4 C 83 % 1018,3 hPa 0,0 l/m 0 min 0 min 11 W/m 22,5 km/h (4 Bft) 95,74 %
22.10.2021 17:56 10,8 C 10,0 C 8,4 C 83 % 1018,3 hPa 0,0 l/m 0 min 0 min 10 W/m 16,1 km/h (3 Bft) 97,87 %
22.10.2021 17:58 10,8 C 10,0 C 8,4 C 83 % 1018,3 hPa 0,0 l/m 0 min 0 min 7 W/m 19,3 km/h (3 Bft) 100,00 %
22.10.2021 18:00 10,8 C 10,0 C 8,4 C 83 % 1018,3 hPa 0,0 l/m 0 min 0 min 7 W/m 29,0 km/h (5 Bft) 97,14 %
22.10.2021 18:02 10,8 C 10,0 C 8,4 C 83 % 1018,4 hPa 0,0 l/m 0 min 0 min 7 W/m 16,1 km/h (3 Bft) 98,00 %
22.10.2021 18:04 10,8 C 10,0 C 8,4 C 84 % 1018,5 hPa 0,0 l/m 0 min 0 min 6 W/m 16,1 km/h (3 Bft) 95,74 %
22.10.2021 18:08 10,8 C 10,0 C 8,4 C 84 % 1018,6 hPa 0,0 l/m 0 min 4 min 7 W/m 25,7 km/h (4 Bft) 96,84 %
22.10.2021 18:10 10,8 C 10,0 C 8,4 C 85 % 1018,6 hPa 0,0 l/m 0 min 2 min 7 W/m 22,5 km/h (4 Bft) 97,83 %
22.10.2021 18:12 10,8 C 10,0 C 8,4 C 85 % 1018,6 hPa 0,0 l/m 0 min 2 min 7 W/m 25,7 km/h (4 Bft) 97,87 %
22.10.2021 18:14 10,7 C 10,0 C 7,8 C 86 % 1018,6 hPa 0,0 l/m 0 min 2 min 5 W/m 19,3 km/h (3 Bft) 97,87 %
22.10.2021 18:16 10,6 C 10,0 C 7,8 C 86 % 1018,7 hPa 0,0 l/m 0 min 2 min 5 W/m 19,3 km/h (3 Bft) 97,87 %
22.10.2021 18:18 10,5 C 10,0 C 7,8 C 86 % 1018,7 hPa 0,0 l/m 0 min 2 min 2 W/m 16,1 km/h (3 Bft) 97,87 %
22.10.2021 18:20 10,5 C 9,4 C 7,8 C 87 % 1018,8 hPa 0,0 l/m 0 min 2 min 0 W/m 22,5 km/h (4 Bft) 97,87 %
22.10.2021 18:22 10,4 C 9,4 C 7,8 C 88 % 1018,9 hPa 0,0 l/m 0 min 2 min 0 W/m 16,1 km/h (3 Bft) 95,65 %
22.10.2021 18:24 10,4 C 9,4 C 7,8 C 88 % 1018,9 hPa 0,0 l/m 0 min 2 min 0 W/m 25,7 km/h (4 Bft) 97,87 %
22.10.2021 18:26 10,3 C 9,4 C 7,3 C 88 % 1019,0 hPa 0,0 l/m 0 min 2 min 0 W/m 19,3 km/h (3 Bft) 97,87 %
22.10.2021 18:28 10,3 C 9,4 C 7,3 C 89 % 1019,2 hPa 0,0 l/m 0 min 2 min 0 W/m 19,3 km/h (3 Bft) 97,87 %
22.10.2021 18:30 10,2 C 9,4 C 7,3 C 89 % 1019,1 hPa 0,2 l/m 0 min 2 min 0 W/m 12,9 km/h (3 Bft) 100,00 %
22.10.2021 18:32 10,2 C 9,4 C 7,3 C 89 % 1019,2 hPa 0,0 l/m 0 min 2 min 0 W/m 12,9 km/h (3 Bft) 97,87 %
22.10.2021 18:34 10,1 C 9,4 C 7,3 C 90 % 1019,2 hPa 0,0 l/m 0 min 2 min 0 W/m 16,1 km/h (3 Bft) 100,00 %
22.10.2021 18:36 10,1 C 8,9 C 7,3 C 90 % 1019,2 hPa 0,0 l/m 0 min 2 min 0 W/m 22,5 km/h (4 Bft) 97,87 %
22.10.2021 18:38 10,0 C 8,9 C 7,3 C 90 % 1019,3 hPa 0,2 l/m 0 min 2 min 0 W/m 12,9 km/h (3 Bft) 97,87 %
22.10.2021 18:40 9,9 C 8,9 C 7,3 C 90 % 1019,4 hPa 0,0 l/m 0 min 2 min 0 W/m 9,7 km/h (2 Bft) 100,00 %
22.10.2021 18:42 9,9 C 8,9 C 7,3 C 91 % 1019,4 hPa 0,0 l/m 0 min 2 min 0 W/m 16,1 km/h (3 Bft) 100,00 %
22.10.2021 18:44 9,9 C 8,9 C 7,3 C 91 % 1019,5 hPa 0,2 l/m 0 min 2 min 0 W/m 19,3 km/h (3 Bft) 100,00 %
22.10.2021 18:46 9,8 C 8,9 C 7,3 C 91 % 1019,5 hPa 0,0 l/m 0 min 2 min 0 W/m 16,1 km/h (3 Bft) 97,83 %
22.10.2021 18:48 9,7 C 8,9 C 7,3 C 91 % 1019,5 hPa 0,0 l/m 0 min 0 min 0 W/m 16,1 km/h (3 Bft) 100,00 %
22.10.2021 18:50 9,6 C 8,9 C 7,3 C 92 % 1019,6 hPa 0,0 l/m 0 min 0 min 0 W/m 19,3 km/h (3 Bft) 100,00 %
22.10.2021 18:52 9,6 C 8,9 C 7,3 C 92 % 1019,6 hPa 0,0 l/m 0 min 2 min 0 W/m 29,0 km/h (5 Bft) 100,00 %
22.10.2021 18:54 9,5 C 8,3 C 6,7 C 92 % 1019,6 hPa 0,0 l/m 0 min 2 min 0 W/m 12,9 km/h (3 Bft) 100,00 %
22.10.2021 18:56 9,5 C 8,3 C 6,7 C 92 % 1019,6 hPa 0,0 l/m 0 min 0 min 0 W/m 16,1 km/h (3 Bft) 100,00 %
22.10.2021 18:58 9,4 C 8,3 C 6,7 C 92 % 1019,6 hPa 0,0 l/m 0 min 0 min 0 W/m 16,1 km/h (3 Bft) 100,00 %
22.10.2021 19:00 9,4 C 8,3 C 6,7 C 92 % 1019,6 hPa 0,0 l/m 0 min 0 min 0 W/m 6,4 km/h (2 Bft) 100,00 %
22.10.2021 19:02 9,4 C 8,3 C 6,7 C 92 % 1019,7 hPa 0,0 l/m 0 min 0 min 0 W/m 16,1 km/h (3 Bft) 95,74 %
22.10.2021 19:04 9,3 C 8,3 C 6,7 C 92 % 1019,6 hPa 0,0 l/m 0 min 0 min 0 W/m 12,9 km/h (3 Bft) 97,87 %
22.10.2021 19:06 9,3 C 8,3 C 6,7 C 92 % 1019,7 hPa 0,0 l/m 0 min 0 min 0 W/m 12,9 km/h (3 Bft) 97,87 %
22.10.2021 19:08 9,3 C 8,3 C 6,7 C 93 % 1019,7 hPa 0,0 l/m 0 min 0 min 0 W/m 9,7 km/h (2 Bft) 91,49 %
22.10.2021 19:10 9,2 C 8,3 C 6,7 C 93 % 1019,8 hPa 0,0 l/m 0 min 0 min 0 W/m 9,7 km/h (2 Bft) 97,83 %
22.10.2021 19:12 9,1 C 8,3 C 6,7 C 93 % 1019,9 hPa 0,0 l/m 0 min 0 min 0 W/m 12,9 km/h (3 Bft) 97,87 %
22.10.2021 19:14 9,1 C 8,3 C 6,7 C 93 % 1019,9 hPa 0,0 l/m 0 min 0 min 0 W/m 9,7 km/h (2 Bft) 95,74 %
22.10.2021 19:16 9,1 C 8,3 C 6,7 C 93 % 1019,9 hPa 0,0 l/m 0 min 0 min 0 W/m 16,1 km/h (3 Bft) 95,74 %
22.10.2021 19:18 9,1 C 8,3 C 6,7 C 93 % 1019,9 hPa 0,0 l/m 0 min 0 min 0 W/m 12,9 km/h (3 Bft) 97,87 %
22.10.2021 19:20 9,0 C 8,3 C 6,7 C 93 % 1019,9 hPa 0,0 l/m 0 min 0 min 0 W/m 16,1 km/h (3 Bft) 97,83 %
22.10.2021 19:22 9,0 C 8,3 C 6,7 C 93 % 1020,0 hPa 0,0 l/m 0 min 2 min 0 W/m 12,9 km/h (3 Bft) 95,74 %
22.10.2021 19:24 9,0 C 8,3 C 6,7 C 93 % 1020,1 hPa 0,0 l/m 0 min 0 min 0 W/m 16,1 km/h (3 Bft) 97,87 %
22.10.2021 19:26 9,0 C 8,3 C 6,7 C 93 % 1020,1 hPa 0,0 l/m 0 min 0 min 0 W/m 12,9 km/h (3 Bft) 95,74 %
22.10.2021 19:28 9,0 C 8,3 C 6,7 C 93 % 1020,1 hPa 0,0 l/m 0 min 0 min 0 W/m 9,7 km/h (2 Bft) 97,87 %
22.10.2021 19:30 9,0 C 8,3 C 6,7 C 93 % 1020,2 hPa 0,0 l/m 0 min 0 min 0 W/m 6,4 km/h (2 Bft) 97,87 %
22.10.2021 19:32 9,0 C 8,3 C 6,7 C 93 % 1020,2 hPa 0,0 l/m 0 min 0 min 0 W/m 12,9 km/h (3 Bft) 100,00 %
22.10.2021 19:34 9,0 C 8,3 C 6,7 C 93 % 1020,3 hPa 0,0 l/m 0 min 0 min 0 W/m 6,4 km/h (2 Bft) 100,00 %
22.10.2021 19:36 9,0 C 8,3 C 6,7 C 93 % 1020,3 hPa 0,0 l/m 0 min 0 min 0 W/m 9,7 km/h (2 Bft) 95,74 %
22.10.2021 19:38 9,0 C 8,3 C 6,7 C 93 % 1020,3 hPa 0,0 l/m 0 min 0 min 0 W/m 16,1 km/h (3 Bft) 100,00 %
22.10.2021 19:40 9,0 C 8,3 C 6,7 C 93 % 1020,4 hPa 0,0 l/m 0 min 2 min 0 W/m 12,9 km/h (3 Bft) 100,00 %
22.10.2021 19:42 9,0 C 8,3 C 6,7 C 93 % 1020,4 hPa 0,0 l/m 0 min 2 min 0 W/m 6,4 km/h (2 Bft) 100,00 %
22.10.2021 19:44 8,9 C 8,3 C 6,7 C 93 % 1020,4 hPa 0,0 l/m 0 min 0 min 0 W/m 9,7 km/h (2 Bft) 100,00 %
22.10.2021 19:46 9,0 C 8,3 C 6,7 C 93 % 1020,3 hPa 0,0 l/m 0 min 0 min 0 W/m 9,7 km/h (2 Bft) 97,87 %
22.10.2021 19:48 8,9 C 8,3 C 6,7 C 93 % 1020,4 hPa 0,0 l/m 0 min 0 min 0 W/m 9,7 km/h (2 Bft) 97,87 %
22.10.2021 19:50 8,9 C 8,3 C 6,7 C 94 % 1020,5 hPa 0,0 l/m 0 min 0 min 0 W/m 9,7 km/h (2 Bft) 97,87 %
22.10.2021 19:52 8,9 C 8,3 C 6,7 C 94 % 1020,5 hPa 0,0 l/m 0 min 0 min 0 W/m 12,9 km/h (3 Bft) 93,62 %
22.10.2021 19:54 8,9 C 8,3 C 6,7 C 94 % 1020,6 hPa 0,0 l/m 0 min 0 min 0 W/m 9,7 km/h (2 Bft) 95,83 %
22.10.2021 19:56 8,9 C 8,3 C 6,7 C 94 % 1020,6 hPa 0,0 l/m 0 min 0 min 0 W/m 6,4 km/h (2 Bft) 97,87 %
22.10.2021 19:58 8,9 C 8,3 C 6,7 C 94 % 1020,7 hPa 0,0 l/m 0 min 0 min 0 W/m 6,4 km/h (2 Bft) 95,74 %
22.10.2021 20:00 8,9 C 8,3 C 6,7 C 94 % 1020,7 hPa 0,0 l/m 0 min 0 min 0 W/m 6,4 km/h (2 Bft) 97,87 %
22.10.2021 20:02 8,9 C 8,3 C 6,7 C 94 % 1020,7 hPa 0,0 l/m 0 min 0 min 0 W/m 9,7 km/h (2 Bft) 97,83 %
22.10.2021 20:04 8,9 C 8,3 C 6,7 C 94 % 1020,7 hPa 0,0 l/m 0 min 0 min 0 W/m 6,4 km/h (2 Bft) 97,92 %
22.10.2021 20:06 8,9 C 8,3 C 6,7 C 94 % 1020,8 hPa 0,0 l/m 0 min 0 min 0 W/m 3,2 km/h (1 Bft) 95,74 %
22.10.2021 20:08 8,9 C 8,3 C 6,7 C 94 % 1020,8 hPa 0,0 l/m 0 min 0 min 0 W/m 6,4 km/h (2 Bft) 97,87 %
22.10.2021 20:10 8,9 C 8,3 C 6,7 C 94 % 1020,8 hPa 0,0 l/m 0 min 0 min 0 W/m 6,4 km/h (2 Bft) 97,87 %
22.10.2021 20:12 8,9 C 8,3 C 6,7 C 94 % 1020,8 hPa 0,0 l/m 0 min 0 min 0 W/m 6,4 km/h (2 Bft) 97,87 %
22.10.2021 20:14 8,8 C 8,3 C 6,7 C 94 % 1020,9 hPa 0,0 l/m 0 min 0 min 0 W/m 6,4 km/h (2 Bft) 97,83 %
22.10.2021 20:16 8,8 C 8,3 C 6,7 C 94 % 1021,0 hPa 0,0 l/m 0 min 0 min 0 W/m 3,2 km/h (1 Bft) 97,87 %
22.10.2021 20:18 8,8 C 8,3 C 6,7 C 94 % 1021,0 hPa 0,0 l/m 0 min 0 min 0 W/m 6,4 km/h (2 Bft) 97,87 %
22.10.2021 20:20 8,8 C 8,3 C 6,7 C 94 % 1021,1 hPa 0,0 l/m 0 min 0 min 0 W/m 3,2 km/h (1 Bft) 97,87 %
22.10.2021 20:22 8,8 C 8,3 C 6,7 C 94 % 1021,1 hPa 0,0 l/m 0 min 0 min 0 W/m 3,2 km/h (1 Bft) 97,87 %
22.10.2021 20:24 8,8 C 8,3 C 6,7 C 94 % 1021,1 hPa 0,0 l/m 0 min 0 min 0 W/m 9,7 km/h (2 Bft) 97,87 %
22.10.2021 20:26 8,8 C 8,3 C 6,7 C 94 % 1021,1 hPa 0,0 l/m 0 min 0 min 0 W/m 6,4 km/h (2 Bft) 97,83 %
22.10.2021 20:28 8,8 C 8,3 C 6,7 C 94 % 1021,1 hPa 0,0 l/m 0 min 0 min 0 W/m 6,4 km/h (2 Bft) 100,00 %
22.10.2021 20:30 8,8 C 8,3 C 6,7 C 94 % 1021,1 hPa 0,0 l/m 0 min 0 min 0 W/m 3,2 km/h (1 Bft) 100,00 %
22.10.2021 20:32 8,8 C 7,8 C 6,7 C 94 % 1021,2 hPa 0,0 l/m 0 min 0 min 0 W/m 3,2 km/h (1 Bft) 97,87 %
22.10.2021 20:34 8,8 C 7,8 C 6,7 C 94 % 1021,2 hPa 0,0 l/m 0 min 0 min 0 W/m 6,4 km/h (2 Bft) 100,00 %
22.10.2021 20:36 8,8 C 7,8 C 6,7 C 94 % 1021,2 hPa 0,0 l/m 0 min 0 min 0 W/m 6,4 km/h (2 Bft) 100,00 %
22.10.2021 20:38 8,7 C 7,8 C 6,7 C 94 % 1021,3 hPa 0,0 l/m 0 min 0 min 0 W/m 6,4 km/h (2 Bft) 97,83 %
22.10.2021 20:40 8,7 C 7,8 C 6,7 C 94 % 1021,3 hPa 0,0 l/m 0 min 0 min 0 W/m 9,7 km/h (2 Bft) 100,00 %
22.10.2021 20:42 8,7 C 7,8 C 6,7 C 94 % 1021,3 hPa 0,0 l/m 0 min 0 min 0 W/m 6,4 km/h (2 Bft) 100,00 %
22.10.2021 20:44 8,7 C 7,8 C 6,7 C 94 % 1021,4 hPa 0,0 l/m 0 min 0 min 0 W/m 6,4 km/h (2 Bft) 100,00 %
22.10.2021 20:46 8,7 C 7,8 C 6,7 C 94 % 1021,4 hPa 0,0 l/m 0 min 0 min 0 W/m 12,9 km/h (3 Bft) 100,00 %
22.10.2021 20:48 8,7 C 7,8 C 6,7 C 94 % 1021,4 hPa 0,0 l/m 0 min 0 min 0 W/m 6,4 km/h (2 Bft) 93,62 %
22.10.2021 20:50 8,7 C 7,8 C 6,7 C 94 % 1021,3 hPa 0,0 l/m 0 min 0 min 0 W/m 16,1 km/h (3 Bft) 95,65 %
22.10.2021 20:52 8,6 C 7,8 C 6,7 C 94 % 1021,3 hPa 0,0 l/m 0 min 0 min 0 W/m 9,7 km/h (2 Bft) 95,74 %
22.10.2021 20:54 8,6 C 7,8 C 6,7 C 94 % 1021,4 hPa 0,0 l/m 0 min 0 min 0 W/m 12,9 km/h (3 Bft) 95,74 %
22.10.2021 20:56 8,7 C 7,8 C 6,7 C 94 % 1021,4 hPa 0,0 l/m 0 min 0 min 0 W/m 6,4 km/h (2 Bft) 93,62 %
22.10.2021 20:58 8,7 C 7,8 C 6,7 C 94 % 1021,5 hPa 0,0 l/m 0 min 0 min 0 W/m 6,4 km/h (2 Bft) 95,74 %
22.10.2021 21:00 8,7 C 7,8 C 6,7 C 94 % 1021,5 hPa 0,0 l/m 0 min 0 min 0 W/m 6,4 km/h (2 Bft) 97,87 %
22.10.2021 21:02 8,7 C 7,8 C 6,7 C 94 % 1021,5 hPa 0,0 l/m 0 min 0 min 0 W/m 6,4 km/h (2 Bft) 95,65 %
22.10.2021 21:04 8,7 C 7,8 C 7,3 C 94 % 1021,5 hPa 0,0 l/m 0 min 0 min 0 W/m 6,4 km/h (2 Bft) 95,74 %
22.10.2021 21:06 8,6 C 7,8 C 7,3 C 94 % 1021,6 hPa 0,0 l/m 0 min 0 min 0 W/m 9,7 km/h (2 Bft) 97,87 %
22.10.2021 21:08 8,7 C 7,8 C 7,3 C 94 % 1021,6 hPa 0,0 l/m 0 min 0 min 0 W/m 6,4 km/h (2 Bft) 95,74 %
22.10.2021 21:10 8,7 C 7,8 C 7,3 C 94 % 1021,5 hPa 0,0 l/m 0 min 0 min 0 W/m 6,4 km/h (2 Bft) 95,74 %
22.10.2021 21:12 8,7 C 7,8 C 7,3 C 94 % 1021,6 hPa 0,0 l/m 0 min 0 min 0 W/m 16,1 km/h (3 Bft) 93,62 %
22.10.2021 21:14 8,6 C 7,8 C 7,3 C 94 % 1021,6 hPa 0,0 l/m 0 min 0 min 0 W/m 3,2 km/h (1 Bft) 93,48 %
22.10.2021 21:16 8,6 C 7,8 C 7,3 C 94 % 1021,6 hPa 0,0 l/m 0 min 0 min 0 W/m 6,4 km/h (2 Bft) 95,74 %
22.10.2021 21:18 8,6 C 7,8 C 7,3 C 94 % 1021,6 hPa 0,0 l/m 0 min 0 min 0 W/m 6,4 km/h (2 Bft) 95,74 %
22.10.2021 21:20 8,6 C 7,8 C 7,3 C 94 % 1021,6 hPa 0,0 l/m 0 min 0 min 0 W/m 3,2 km/h (1 Bft) 97,87 %
22.10.2021 21:22 8,6 C 7,8 C 6,7 C 94 % 1021,6 hPa 0,0 l/m 0 min 0 min 0 W/m 6,4 km/h (2 Bft) 97,87 %
22.10.2021 21:24 8,6 C 7,8 C 6,7 C 94 % 1021,6 hPa 0,0 l/m 0 min 0 min 0 W/m 3,2 km/h (1 Bft) 97,87 %
22.10.2021 21:26 8,6 C 7,8 C 6,7 C 94 % 1021,6 hPa 0,0 l/m 0 min 0 min 0 W/m 3,2 km/h (1 Bft) 95,65 %
22.10.2021 21:28 8,6 C 7,8 C 7,3 C 94 % 1021,6 hPa 0,0 l/m 0 min 0 min 0 W/m 3,2 km/h (1 Bft) 97,87 %
22.10.2021 21:30 8,6 C 7,8 C 7,3 C 95 % 1021,7 hPa 0,0 l/m 0 min 0 min 0 W/m 3,2 km/h (1 Bft) 97,87 %
22.10.2021 21:32 8,6 C 7,8 C 7,3 C 95 % 1021,7 hPa 0,0 l/m 0 min 0 min 0 W/m 3,2 km/h (1 Bft) 95,74 %
22.10.2021 21:34 8,6 C 7,8 C 7,3 C 95 % 1021,8 hPa 0,0 l/m 0 min 0 min 0 W/m 6,4 km/h (2 Bft) 95,74 %
22.10.2021 21:36 8,6 C 7,8 C 7,3 C 95 % 1021,7 hPa 0,0 l/m 0 min 0 min 0 W/m 12,9 km/h (3 Bft) 95,65 %
22.10.2021 21:38 8,6 C 7,8 C 7,3 C 95 % 1021,8 hPa 0,0 l/m 0 min 0 min 0 W/m 3,2 km/h (1 Bft) 97,87 %
22.10.2021 21:40 8,6 C 7,8 C 7,3 C 95 % 1021,8 hPa 0,0 l/m 0 min 0 min 0 W/m 6,4 km/h (2 Bft) 97,87 %
22.10.2021 21:42 8,6 C 7,8 C 7,3 C 95 % 1021,9 hPa 0,0 l/m 0 min 0 min 0 W/m 9,7 km/h (2 Bft) 95,74 %
22.10.2021 21:44 8,6 C 7,8 C 7,3 C 95 % 1021,9 hPa 0,0 l/m 0 min 0 min 0 W/m 3,2 km/h (1 Bft) 97,87 %
22.10.2021 21:46 8,6 C 7,8 C 7,3 C 95 % 1021,9 hPa 0,0 l/m 0 min 0 min 0 W/m 6,4 km/h (2 Bft) 97,87 %
22.10.2021 21:48 8,6 C 7,8 C 7,3 C 95 % 1021,9 hPa 0,0 l/m 0 min 0 min 0 W/m 12,9 km/h (3 Bft) 97,83 %
22.10.2021 21:50 8,6 C 7,8 C 7,3 C 95 % 1021,9 hPa 0,0 l/m 0 min 0 min 0 W/m 3,2 km/h (1 Bft) 74,47 %
22.10.2021 21:52 8,5 C 7,8 C 7,3 C 95 % 1022,0 hPa 0,0 l/m 0 min 0 min 0 W/m 3,2 km/h (1 Bft) 81,40 %
22.10.2021 21:54 8,6 C 7,8 C 7,3 C 95 % 1022,0 hPa 0,0 l/m 0 min 0 min 0 W/m 6,4 km/h (2 Bft) 97,87 %
22.10.2021 21:56 8,5 C 7,8 C 6,7 C 95 % 1022,0 hPa 0,0 l/m 0 min 0 min 0 W/m 6,4 km/h (2 Bft) 100,00 %
22.10.2021 21:58 8,5 C 7,8 C 7,3 C 95 % 1022,0 hPa 0,0 l/m 0 min 0 min 0 W/m 6,4 km/h (2 Bft) 100,00 %
22.10.2021 22:00 8,5 C 7,8 C 6,7 C 95 % 1022,0 hPa 0,0 l/m 0 min 0 min 0 W/m 9,7 km/h (2 Bft) 100,00 %
22.10.2021 22:02 8,5 C 7,8 C 6,7 C 95 % 1022,0 hPa 0,0 l/m 0 min 0 min 0 W/m 3,2 km/h (1 Bft) 100,00 %
22.10.2021 22:04 8,5 C 7,8 C 6,7 C 95 % 1022,1 hPa 0,0 l/m 0 min 0 min 0 W/m 3,2 km/h (1 Bft) 95,74 %
22.10.2021 22:06 8,5 C 7,8 C 6,7 C 95 % 1022,0 hPa 0,0 l/m 0 min 0 min 0 W/m 3,2 km/h (1 Bft) 95,74 %
22.10.2021 22:08 8,5 C 7,8 C 6,7 C 95 % 1022,1 hPa 0,0 l/m 0 min 0 min 0 W/m 3,2 km/h (1 Bft) 100,00 %
22.10.2021 22:10 8,5 C 7,8 C 6,7 C 95 % 1022,1 hPa 0,0 l/m 0 min 0 min 0 W/m 3,2 km/h (1 Bft) 100,00 %
22.10.2021 22:12 8,4 C 7,8 C 6,7 C 95 % 1022,2 hPa 0,0 l/m 0 min 0 min 0 W/m 3,2 km/h (1 Bft) 97,83 %
22.10.2021 22:14 8,4 C 7,8 C 6,7 C 95 % 1022,2 hPa 0,0 l/m 0 min 0 min 0 W/m 3,2 km/h (1 Bft) 97,87 %
22.10.2021 22:16 8,4 C 7,8 C 6,7 C 95 % 1022,3 hPa 0,0 l/m 0 min 0 min 0 W/m 3,2 km/h (1 Bft) 97,87 %
22.10.2021 22:18 8,4 C 7,8 C 6,7 C 95 % 1022,4 hPa 0,0 l/m 0 min 0 min 0 W/m 6,4 km/h (2 Bft) 97,87 %
22.10.2021 22:20 8,4 C 7,8 C 6,7 C 95 % 1022,5 hPa 0,0 l/m 0 min 0 min 0 W/m 6,4 km/h (2 Bft) 95,74 %
22.10.2021 22:22 8,4 C 7,8 C 6,7 C 95 % 1022,5 hPa 0,0 l/m 0 min 0 min 0 W/m 6,4 km/h (2 Bft) 97,87 %
22.10.2021 22:24 8,4 C 7,8 C 6,7 C 95 % 1022,5 hPa 0,0 l/m 0 min 0 min 0 W/m 9,7 km/h (2 Bft) 93,48 %
22.10.2021 22:26 8,4 C 7,8 C 6,7 C 95 % 1022,6 hPa 0,0 l/m 0 min 0 min 0 W/m 3,2 km/h (1 Bft) 97,87 %
22.10.2021 22:28 8,3 C 7,8 C 6,7 C 95 % 1022,6 hPa 0,0 l/m 0 min 0 min 0 W/m 3,2 km/h (1 Bft) 97,87 %
22.10.2021 22:30 8,4 C 7,8 C 6,7 C 95 % 1022,6 hPa 0,0 l/m 0 min 0 min 0 W/m 6,4 km/h (2 Bft) 97,87 %
22.10.2021 22:32 8,4 C 7,8 C 6,7 C 95 % 1022,6 hPa 0,0 l/m 0 min 0 min 0 W/m 6,4 km/h (2 Bft) 97,87 %
22.10.2021 22:34 8,4 C 7,8 C 6,7 C 95 % 1022,6 hPa 0,0 l/m 0 min 0 min 0 W/m 3,2 km/h (1 Bft) 97,87 %
22.10.2021 22:36 8,4 C 7,8 C 6,7 C 95 % 1022,7 hPa 0,0 l/m 0 min 0 min 0 W/m 3,2 km/h (1 Bft) 95,65 %
22.10.2021 22:38 8,3 C 7,8 C 6,7 C 95 % 1022,6 hPa 0,0 l/m 0 min 0 min 0 W/m 6,4 km/h (2 Bft) 93,62 %
22.10.2021 22:40 8,3 C 7,8 C 6,7 C 95 % 1022,8 hPa 0,0 l/m 0 min 0 min 0 W/m 3,2 km/h (1 Bft) 95,74 %
22.10.2021 22:42 8,3 C 7,2 C 6,7 C 95 % 1022,8 hPa 0,0 l/m 0 min 0 min 0 W/m 3,2 km/h (1 Bft) 95,74 %
22.10.2021 22:44 8,3 C 7,2 C 6,7 C 95 % 1022,8 hPa 0,0 l/m 0 min 0 min 0 W/m 3,2 km/h (1 Bft) 93,62 %
22.10.2021 22:46 8,3 C 7,2 C 6,7 C 95 % 1022,9 hPa 0,0 l/m 0 min 0 min 0 W/m 3,2 km/h (1 Bft) 93,62 %
22.10.2021 22:48 8,2 C 7,2 C 6,7 C 95 % 1022,9 hPa 0,0 l/m 0 min 0 min 0 W/m 6,4 km/h (2 Bft) 95,65 %
22.10.2021 22:50 8,2 C 7,2 C 6,7 C 95 % 1023,0 hPa 0,0 l/m 0 min 0 min 0 W/m 12,9 km/h (3 Bft) 95,74 %
22.10.2021 22:52 8,2 C 7,2 C 6,7 C 95 % 1023,0 hPa 0,0 l/m 0 min 0 min 0 W/m 6,4 km/h (2 Bft) 95,74 %
22.10.2021 22:54 8,2 C 7,8 C 6,7 C 95 % 1023,0 hPa 0,0 l/m 0 min 0 min 0 W/m 6,4 km/h (2 Bft) 93,62 %
22.10.2021 22:56 8,2 C 7,8 C 6,7 C 95 % 1023,1 hPa 0,0 l/m 0 min 0 min 0 W/m 3,2 km/h (1 Bft) 95,74 %
22.10.2021 22:58 8,2 C 7,8 C 6,7 C 95 % 1023,0 hPa 0,0 l/m 0 min 0 min 0 W/m 3,2 km/h (1 Bft) 97,87 %
22.10.2021 23:00 8,2 C 7,8 C 6,7 C 95 % 1023,1 hPa 0,0 l/m 0 min 0 min 0 W/m 6,4 km/h (2 Bft) 97,83 %
22.10.2021 23:02 8,2 C 7,8 C 6,7 C 95 % 1023,1 hPa 0,0 l/m 0 min 0 min 0 W/m 3,2 km/h (1 Bft) 97,87 %
22.10.2021 23:04 8,2 C 7,8 C 6,7 C 95 % 1023,1 hPa 0,0 l/m 0 min 0 min 0 W/m 6,4 km/h (2 Bft) 100,00 %
22.10.2021 23:06 8,3 C 7,8 C 7,3 C 95 % 1023,0 hPa 0,0 l/m 0 min 0 min 0 W/m 3,2 km/h (1 Bft) 97,87 %
22.10.2021 23:08 8,3 C 7,8 C 7,3 C 95 % 1023,1 hPa 0,0 l/m 0 min 0 min 0 W/m 3,2 km/h (1 Bft) 100,00 %
22.10.2021 23:10 8,3 C 7,8 C 7,3 C 95 % 1023,1 hPa 0,0 l/m 0 min 0 min 0 W/m 3,2 km/h (1 Bft) 100,00 %
22.10.2021 23:12 8,3 C 7,8 C 7,3 C 95 % 1023,2 hPa 0,0 l/m 0 min 0 min 0 W/m 3,2 km/h (1 Bft) 100,00 %
22.10.2021 23:14 8,3 C 7,8 C 7,3 C 95 % 1023,2 hPa 0,0 l/m 0 min 0 min 0 W/m 3,2 km/h (1 Bft) 100,00 %
22.10.2021 23:16 8,3 C 7,8 C 7,3 C 95 % 1023,2 hPa 0,0 l/m 0 min 0 min 0 W/m 3,2 km/h (1 Bft) 100,00 %
22.10.2021 23:18 8,3 C 7,8 C 7,3 C 95 % 1023,2 hPa 0,0 l/m 0 min 0 min 0 W/m 3,2 km/h (1 Bft) 56,52 %
22.10.2021 23:20 8,3 C 7,8 C 7,3 C 96 % 1023,1 hPa 0,0 l/m 0 min 0 min 0 W/m 6,4 km/h (2 Bft) 100,00 %
22.10.2021 23:22 8,3 C 7,8 C 7,3 C 96 % 1023,2 hPa 0,0 l/m 0 min 0 min 0 W/m 6,4 km/h (2 Bft) 100,00 %
22.10.2021 23:24 8,3 C 7,8 C 7,3 C 96 % 1023,2 hPa 0,0 l/m 0 min 0 min 0 W/m 6,4 km/h (2 Bft) 100,00 %
22.10.2021 23:26 8,3 C 7,8 C 7,3 C 96 % 1023,2 hPa 0,0 l/m 0 min 0 min 0 W/m 6,4 km/h (2 Bft) 97,87 %
22.10.2021 23:28 8,3 C 7,8 C 7,3 C 96 % 1023,2 hPa 0,0 l/m 0 min 0 min 0 W/m 12,9 km/h (3 Bft) 100,00 %
22.10.2021 23:30 8,3 C 7,8 C 7,3 C 96 % 1023,2 hPa 0,0 l/m 0 min 0 min 0 W/m 6,4 km/h (2 Bft) 100,00 %
22.10.2021 23:32 8,3 C 7,8 C 7,3 C 96 % 1023,3 hPa 0,0 l/m 0 min 0 min 0 W/m 6,4 km/h (2 Bft) 97,87 %
22.10.2021 23:34 8,3 C 7,8 C 7,3 C 96 % 1023,4 hPa 0,0 l/m 0 min 0 min 0 W/m 3,2 km/h (1 Bft) 100,00 %
22.10.2021 23:36 8,3 C 7,8 C 7,3 C 96 % 1023,4 hPa 0,0 l/m 0 min 0 min 0 W/m 3,2 km/h (1 Bft) 100,00 %
22.10.2021 23:38 8,3 C 7,8 C 7,3 C 96 % 1023,4 hPa 0,0 l/m 0 min 0 min 0 W/m 3,2 km/h (1 Bft) 100,00 %
22.10.2021 23:40 8,3 C 7,8 C 7,3 C 96 % 1023,4 hPa 0,0 l/m 0 min 0 min 0 W/m 3,2 km/h (1 Bft) 100,00 %
22.10.2021 23:42 8,3 C 7,8 C 7,3 C 96 % 1023,4 hPa 0,0 l/m 0 min 0 min 0 W/m 6,4 km/h (2 Bft) 100,00 %
22.10.2021 23:44 8,3 C 7,8 C 7,3 C 96 % 1023,3 hPa 0,0 l/m 0 min 0 min 0 W/m 3,2 km/h (1 Bft) 100,00 %
22.10.2021 23:46 8,3 C 7,8 C 7,3 C 96 % 1023,3 hPa 0,0 l/m 0 min 0 min 0 W/m 3,2 km/h (1 Bft) 97,83 %
22.10.2021 23:48 8,2 C 7,8 C 7,3 C 96 % 1023,4 hPa 0,0 l/m 0 min 0 min 0 W/m 3,2 km/h (1 Bft) 100,00 %
22.10.2021 23:50 8,2 C 7,8 C 7,3 C 96 % 1023,5 hPa 0,0 l/m 0 min 0 min 0 W/m 6,4 km/h (2 Bft) 100,00 %
22.10.2021 23:52 8,2 C 7,2 C 7,3 C 95 % 1023,4 hPa 0,0 l/m 0 min 0 min 0 W/m 3,2 km/h (1 Bft) 100,00 %
22.10.2021 23:54 8,2 C 7,2 C 7,3 C 95 % 1023,5 hPa 0,0 l/m 0 min 0 min 0 W/m 6,4 km/h (2 Bft) 97,87 %
22.10.2021 23:56 8,1 C 7,2 C 6,7 C 95 % 1023,5 hPa 0,0 l/m 0 min 0 min 0 W/m 6,4 km/h (2 Bft) 100,00 %
22.10.2021 23:58 8,1 C 7,2 C 6,7 C 95 % 1023,6 hPa 0,0 l/m 0 min 0 min 0 W/m 3,2 km/h (1 Bft) 100,00 %
_ Min-Zeit 06:18 04:09 07:00 12:44 00:00 - - - - 00:02 04:02
Minimum _ 5,3 C 5,0 C 4,5 C 74 % 1014,9 hPa - - - - 3,2 km/h (1 Bft) 38,46 %
_ Max-Zeit 16:20 11:26 11:46 23:20 23:58 12:10 10:30 18:08 14:58 10:58 00:10
Maximum _ 12,4 C 16,7 C 12,3 C 96 % 1023,6 hPa 0,2 l/m 2 min 4 min 533 W/m 45,1 km/h
S-SW (6 Bft)
100,00 %
Durchschnitt _ 8,3 C 8,1 C 7,0 C 87 % 1017,3 hPa #0,8 l/m #2:00 h #54 min. 123 W/m 15,4 km/h (3 Bft) 97,35 %
© 2021 W. Hausmann